DAL636 KJFK-PHNL

Flight info

Callsign DAL636
Flight time 10h 21m
Altitude 34000
Route DEEZZ6 CANDR J60 DJB JOT/N0457F300 LNK DVV DTA/N0463F320 MVA OAK BEBOP R464 BILLO/N0456F340 R464 BITTA MAGGI3
Aircraft B763/H-SDE3FGHIM3RWXY/LB1

Departure

Time 2026-05-04 17:54
Airport John F. Kennedy International Airport (KJFK)

Arrival

Time 2026-05-05 04:15
Airport Daniel K. Inouye International Airport (PHNL)
Time Latitude Longitude Altitude Speed Heading
2026-05-04 17:07 40.63846 -73.78040 18 ft 0 kts 262°
2026-05-04 17:38 40.63847 -73.78032 18 ft 2 kts 262°
2026-05-04 17:38 40.63849 -73.78012 18 ft 2 kts 262°
2026-05-04 17:38 40.63851 -73.77992 18 ft 2 kts 262°
2026-05-04 17:39 40.63857 -73.77959 18 ft 2 kts 234°
2026-05-04 17:39 40.63868 -73.77943 18 ft 2 kts 213°
2026-05-04 17:39 40.63882 -73.77934 18 ft 2 kts 190°
2026-05-04 17:40 40.63894 -73.77934 18 ft 0 kts 175°
2026-05-04 17:40 40.63898 -73.77934 18 ft 1 kts 171°
2026-05-04 17:40 40.63900 -73.77934 18 ft 0 kts 172°
2026-05-04 17:44 40.63899 -73.77934 18 ft 0 kts 172°
2026-05-04 17:44 40.63885 -73.77932 18 ft 3 kts 172°
2026-05-04 17:44 40.63856 -73.77927 18 ft 4 kts 172°
2026-05-04 17:44 40.63817 -73.77921 18 ft 6 kts 174°
2026-05-04 17:45 40.63770 -73.77914 18 ft 6 kts 173°
2026-05-04 17:45 40.63718 -73.77906 18 ft 7 kts 173°
2026-05-04 17:45 40.63663 -73.77898 17 ft 7 kts 173°
2026-05-04 17:45 40.63601 -73.77882 16 ft 10 kts 157°
2026-05-04 17:46 40.63547 -73.77810 16 ft 11 kts 122°
2026-05-04 17:46 40.63528 -73.77718 17 ft 9 kts 71°
2026-05-04 17:46 40.63574 -73.77656 18 ft 9 kts 33°
2026-05-04 17:46 40.63636 -73.77605 18 ft 10 kts 31°
2026-05-04 17:47 40.63703 -73.77553 18 ft 11 kts 31°
2026-05-04 17:47 40.63776 -73.77496 18 ft 12 kts 31°
2026-05-04 17:47 40.63851 -73.77437 18 ft 12 kts 31°
2026-05-04 17:47 40.63933 -73.77374 18 ft 13 kts 31°
2026-05-04 17:48 40.64018 -73.77306 18 ft 14 kts 30°
2026-05-04 17:48 40.64108 -73.77237 18 ft 15 kts 30°
2026-05-04 17:48 40.64201 -73.77165 18 ft 15 kts 30°
2026-05-04 17:48 40.64301 -73.77086 18 ft 16 kts 31°
2026-05-04 17:49 40.64405 -73.77010 18 ft 17 kts 20°
2026-05-04 17:49 40.64523 -73.76971 18 ft 17 kts 23°
2026-05-04 17:49 40.64603 -73.76914 18 ft 9 kts 30°
2026-05-04 17:49 40.64667 -73.76864 18 ft 10 kts 30°
2026-05-04 17:50 40.64676 -73.76857 18 ft 0 kts 30°
2026-05-04 17:50 40.64684 -73.76851 18 ft 2 kts 30°
2026-05-04 17:51 40.64708 -73.76832 18 ft 5 kts 30°
2026-05-04 17:51 40.64745 -73.76803 18 ft 6 kts 30°
2026-05-04 17:51 40.64788 -73.76769 18 ft 7 kts 30°
2026-05-04 17:51 40.64838 -73.76730 18 ft 8 kts 30°
2026-05-04 17:52 40.64892 -73.76688 18 ft 9 kts 30°
2026-05-04 17:52 40.64952 -73.76640 18 ft 10 kts 33°
2026-05-04 17:52 40.64995 -73.76554 18 ft 12 kts 85°
2026-05-04 17:52 40.64940 -73.76452 18 ft 17 kts 173°
2026-05-04 17:53 40.64808 -73.76522 18 ft 28 kts 211°
2026-05-04 17:53 40.64473 -73.76784 18 ft 80 kts 210°
2026-05-04 17:53 40.63800 -73.77312 18 ft 136 kts 211°
2026-05-04 17:53 40.62803 -73.78097 32 ft 186 kts 211°
2026-05-04 17:54 40.61592 -73.79050 508 ft 205 kts 211°
2026-05-04 17:54 40.60260 -73.80102 959 ft 230 kts 211°
2026-05-04 17:54 40.58751 -73.81297 1329 ft 264 kts 211°
2026-05-04 17:54 40.57095 -73.82609 1653 ft 260 kts 211°
2026-05-04 17:55 40.55465 -73.83416 1973 ft 231 kts 184°
2026-05-04 17:55 40.53968 -73.82952 2307 ft 215 kts 148°
2026-05-04 17:55 40.52922 -73.81339 2839 ft 237 kts 122°
2026-05-04 17:55 40.52196 -73.79270 3426 ft 257 kts 109°
2026-05-04 17:56 40.52140 -73.76768 4027 ft 277 kts 79°
2026-05-04 17:56 40.53021 -73.74445 4604 ft 286 kts 50°
2026-05-04 17:56 40.54663 -73.72790 5188 ft 291 kts 23°
2026-05-04 17:56 40.56678 -73.72248 5766 ft 292 kts 354°
2026-05-04 17:57 40.58711 -73.72889 6368 ft 291 kts 340°
2026-05-04 17:57 40.60767 -73.73317 6922 ft 297 kts 354°
2026-05-04 17:57 40.62892 -73.73426 7469 ft 300 kts 354°
2026-05-04 17:57 40.65059 -73.73583 8019 ft 302 kts 353°
2026-05-04 17:58 40.67235 -73.73764 8443 ft 307 kts 353°
2026-05-04 17:58 40.69431 -73.73955 8829 ft 306 kts 353°
2026-05-04 17:58 40.71592 -73.74147 9212 ft 308 kts 353°
2026-05-04 17:58 40.73803 -73.74346 9606 ft 311 kts 353°
2026-05-04 17:59 40.76025 -73.74548 9996 ft 313 kts 353°
2026-05-04 17:59 40.78271 -73.74751 10388 ft 314 kts 353°
2026-05-04 17:59 40.82801 -73.75163 11175 ft 319 kts 352°
2026-05-04 18:00 40.85044 -73.75366 11560 ft 322 kts 352°
2026-05-04 18:00 40.87344 -73.75576 11953 ft 324 kts 352°
2026-05-04 18:00 40.89635 -73.75784 12341 ft 326 kts 352°
2026-05-04 18:00 40.91954 -73.75996 12740 ft 334 kts 352°
2026-05-04 18:01 40.94370 -73.76219 13162 ft 350 kts 352°
2026-05-04 18:01 40.96849 -73.76447 13574 ft 366 kts 353°
2026-05-04 18:01 40.99495 -73.76688 13993 ft 379 kts 353°
2026-05-04 18:02 41.04858 -73.77239 14765 ft 380 kts 346°
2026-05-04 18:02 41.07428 -73.78296 15174 ft 374 kts 329°
2026-05-04 18:02 41.09602 -73.80204 15588 ft 369 kts 312°
2026-05-04 18:02 41.11266 -73.82817 15991 ft 361 kts 295°
2026-05-04 18:03 41.12320 -73.85846 16394 ft 354 kts 283°
2026-05-04 18:03 41.13059 -73.89017 16779 ft 354 kts 279°
2026-05-04 18:03 41.13681 -73.92211 17154 ft 354 kts 277°
2026-05-04 18:03 41.14255 -73.95442 17531 ft 355 kts 276°
2026-05-04 18:04 41.14807 -73.98724 17912 ft 357 kts 276°
2026-05-04 18:04 41.15347 -74.02008 18290 ft 359 kts 276°
2026-05-04 18:04 41.16423 -74.08678 19050 ft 363 kts 275°
2026-05-04 18:05 41.16974 -74.12064 19432 ft 365 kts 276°
2026-05-04 18:05 41.17375 -74.15485 19836 ft 360 kts 269°
2026-05-04 18:05 41.17639 -74.18916 20383 ft 362 kts 270°
2026-05-04 18:05 41.17936 -74.22294 20912 ft 367 kts 270°
2026-05-04 18:06 41.18581 -74.29284 21986 ft 374 kts 270°
2026-05-04 18:06 41.18908 -74.32774 22513 ft 377 kts 270°
2026-05-04 18:06 41.19243 -74.36346 23048 ft 379 kts 270°
2026-05-04 18:07 41.19575 -74.39898 23545 ft 382 kts 270°
2026-05-04 18:07 41.19777 -74.43539 23805 ft 384 kts 261°
2026-05-04 18:07 41.19437 -74.47089 24297 ft 377 kts 250°
2026-05-04 18:07 41.18638 -74.50487 24791 ft 374 kts 245°
2026-05-04 18:08 41.17727 -74.53856 25259 ft 376 kts 244°
2026-05-04 18:08 41.16776 -74.57246 25726 ft 378 kts 244°
2026-05-04 18:08 41.15808 -74.60628 26175 ft 380 kts 243°
2026-05-04 18:08 41.14839 -74.63982 26596 ft 382 kts 243°
2026-05-04 18:09 41.12859 -74.70776 27445 ft 386 kts 243°
2026-05-04 18:09 41.10840 -74.77664 28231 ft 390 kts 242°
2026-05-04 18:10 41.09809 -74.81176 28608 ft 392 kts 242°
2026-05-04 18:10 41.08770 -74.84702 28921 ft 395 kts 242°
2026-05-04 18:10 41.07732 -74.88229 29303 ft 396 kts 242°
2026-05-04 18:10 41.06675 -74.91812 29672 ft 398 kts 242°
2026-05-04 18:11 41.05636 -74.95329 30054 ft 398 kts 242°
2026-05-04 18:11 41.04579 -74.98902 30399 ft 399 kts 242°
2026-05-04 18:11 41.03513 -75.02498 30740 ft 400 kts 242°
2026-05-04 18:11 41.02481 -75.05984 31228 ft 396 kts 242°
2026-05-04 18:12 41.01440 -75.09489 31676 ft 394 kts 242°
2026-05-04 18:12 41.00400 -75.12986 32069 ft 392 kts 242°
2026-05-04 18:12 40.99367 -75.16454 32426 ft 390 kts 241°
2026-05-04 18:12 40.98327 -75.19936 32751 ft 389 kts 241°
2026-05-04 18:13 40.97304 -75.23362 33011 ft 389 kts 241°
2026-05-04 18:13 40.96266 -75.26833 33341 ft 387 kts 242°
2026-05-04 18:13 40.94204 -75.33713 33824 ft 386 kts 241°
2026-05-04 18:14 40.93177 -75.37131 33918 ft 388 kts 241°
2026-05-04 18:14 40.91114 -75.43992 33910 ft 384 kts 241°
2026-05-04 18:15 40.86985 -75.57659 33934 ft 384 kts 241°
2026-05-04 18:16 40.84902 -75.64531 33936 ft 384 kts 241°
2026-05-04 18:16 40.82803 -75.71439 33944 ft 383 kts 240°
2026-05-04 18:17 40.79691 -75.81645 33951 ft 383 kts 240°
2026-05-04 18:18 40.76629 -75.91647 33949 ft 383 kts 240°
2026-05-04 18:18 40.74578 -75.98325 33944 ft 383 kts 241°
2026-05-04 18:19 40.71497 -76.08332 33940 ft 383 kts 241°
2026-05-04 18:19 40.69401 -76.15114 33940 ft 384 kts 240°
2026-05-04 18:20 40.67507 -76.22009 33940 ft 392 kts 250°
2026-05-04 18:20 40.67188 -76.25772 33951 ft 404 kts 260°
2026-05-04 18:20 40.67436 -76.29742 33956 ft 419 kts 270°
2026-05-04 18:21 40.68659 -76.37580 33942 ft 420 kts 271°
2026-05-04 18:21 40.69857 -76.45524 33943 ft 420 kts 271°
2026-05-04 18:22 40.71035 -76.53449 33944 ft 419 kts 271°
2026-05-04 18:22 40.72205 -76.61369 33939 ft 419 kts 271°
2026-05-04 18:23 40.73368 -76.69285 33930 ft 418 kts 270°
2026-05-04 18:23 40.74517 -76.77144 33914 ft 418 kts 270°
2026-05-04 18:24 40.75671 -76.85089 33904 ft 419 kts 270°
2026-05-04 18:24 40.76830 -76.93089 33902 ft 418 kts 270°
2026-05-04 18:25 40.77967 -77.00996 33904 ft 418 kts 270°
2026-05-04 18:25 40.79097 -77.08893 33898 ft 417 kts 270°
2026-05-04 18:26 40.80222 -77.16791 33895 ft 418 kts 270°
2026-05-04 18:26 40.81345 -77.24714 33893 ft 418 kts 270°
2026-05-04 18:27 40.82467 -77.32677 33889 ft 418 kts 270°
2026-05-04 18:27 40.83597 -77.40732 33888 ft 419 kts 270°
2026-05-04 18:28 40.84724 -77.48807 33880 ft 417 kts 270°
2026-05-04 18:28 40.85836 -77.56823 33885 ft 417 kts 270°
2026-05-04 18:29 40.86926 -77.64726 33884 ft 417 kts 270°
2026-05-04 18:29 40.88012 -77.72633 33898 ft 417 kts 270°
2026-05-04 18:30 40.89612 -77.84369 33900 ft 416 kts 269°
2026-05-04 18:31 40.90683 -77.92274 33904 ft 416 kts 269°
2026-05-04 18:31 40.91745 -78.00208 33897 ft 415 kts 269°
2026-05-04 18:32 40.92739 -78.08214 33898 ft 416 kts 269°
2026-05-04 18:32 40.93734 -78.16267 33889 ft 415 kts 269°
2026-05-04 18:33 40.94730 -78.24365 33892 ft 415 kts 269°
2026-05-04 18:33 40.95716 -78.32437 33887 ft 414 kts 269°
2026-05-04 18:34 40.96687 -78.40424 33885 ft 415 kts 269°
2026-05-04 18:34 40.97666 -78.48539 33882 ft 414 kts 269°
2026-05-04 18:35 40.98637 -78.56641 33886 ft 416 kts 269°
2026-05-04 18:35 40.99612 -78.64809 33878 ft 415 kts 269°
2026-05-04 18:36 41.00567 -78.72855 33885 ft 413 kts 268°
2026-05-04 18:36 41.01514 -78.80915 33886 ft 413 kts 268°
2026-05-04 18:37 41.02448 -78.88883 33877 ft 414 kts 268°
2026-05-04 18:37 41.03376 -78.96866 33883 ft 413 kts 268°
2026-05-04 18:38 41.04289 -79.04758 33886 ft 410 kts 269°
2026-05-04 18:38 41.05191 -79.12623 33887 ft 407 kts 270°
2026-05-04 18:39 41.06092 -79.20540 33886 ft 413 kts 270°
2026-05-04 18:39 41.06998 -79.28521 33885 ft 415 kts 271°
2026-05-04 18:40 41.07897 -79.36468 33888 ft 414 kts 271°
2026-05-04 18:40 41.08803 -79.44555 33870 ft 417 kts 271°
2026-05-04 18:41 41.09698 -79.52597 33855 ft 416 kts 271°
2026-05-04 18:41 41.10593 -79.60674 33835 ft 416 kts 271°
2026-05-04 18:42 41.11474 -79.68714 33859 ft 420 kts 271°
2026-05-04 18:42 41.12352 -79.76757 33850 ft 418 kts 271°
2026-05-04 18:43 41.13228 -79.84847 33853 ft 420 kts 271°
2026-05-04 18:43 41.14099 -79.92911 33843 ft 419 kts 271°
2026-05-04 18:44 41.14961 -80.00977 33841 ft 419 kts 271°
2026-05-04 18:44 41.15816 -80.09031 33849 ft 419 kts 271°
2026-05-04 18:45 41.16666 -80.17103 33848 ft 419 kts 271°
2026-05-04 18:45 41.17513 -80.25178 33844 ft 418 kts 271°
2026-05-04 18:46 41.18353 -80.33266 33846 ft 422 kts 271°
2026-05-04 18:46 41.19187 -80.41323 33836 ft 418 kts 271°
2026-05-04 18:47 41.20016 -80.49426 33838 ft 418 kts 271°
2026-05-04 18:47 41.20838 -80.57494 33831 ft 418 kts 271°
2026-05-04 18:48 41.21656 -80.65584 33835 ft 420 kts 270°
2026-05-04 18:48 41.22464 -80.73637 33836 ft 418 kts 270°
2026-05-04 18:49 41.23272 -80.81739 33835 ft 418 kts 270°
2026-05-04 18:49 41.24077 -80.89881 33827 ft 418 kts 270°
2026-05-04 18:50 41.24865 -80.97910 33838 ft 414 kts 271°
2026-05-04 18:50 41.25650 -81.05975 33841 ft 409 kts 272°
2026-05-04 18:51 41.26423 -81.13940 33824 ft 405 kts 272°
2026-05-04 18:51 41.27184 -81.21910 33836 ft 410 kts 272°
2026-05-04 18:52 41.27946 -81.29857 33843 ft 405 kts 272°
2026-05-04 18:52 41.28692 -81.37773 33829 ft 407 kts 272°
2026-05-04 18:53 41.29436 -81.45664 33816 ft 407 kts 272°
2026-05-04 18:53 41.30169 -81.53548 33797 ft 407 kts 272°
2026-05-04 18:54 41.30902 -81.61474 33774 ft 407 kts 272°
2026-05-04 18:54 41.31624 -81.69350 33784 ft 405 kts 271°
2026-05-04 18:55 41.32349 -81.77306 33782 ft 407 kts 272°
2026-05-04 18:55 41.33431 -81.89340 33770 ft 406 kts 272°
2026-05-04 18:56 41.34135 -81.97212 33796 ft 406 kts 272°
2026-05-04 18:56 41.34841 -82.05193 33798 ft 408 kts 271°
2026-05-04 18:57 41.35544 -82.13220 33791 ft 407 kts 272°
2026-05-04 18:57 41.36098 -82.21192 33790 ft 405 kts 269°
2026-05-04 18:58 41.36543 -82.29114 33793 ft 406 kts 269°
2026-05-04 18:58 41.36980 -82.36964 33789 ft 405 kts 270°
2026-05-04 18:59 41.37414 -82.44843 33774 ft 405 kts 270°
2026-05-04 18:59 41.37846 -82.52737 33781 ft 405 kts 269°
2026-05-04 19:00 41.38273 -82.60658 33773 ft 406 kts 269°
2026-05-04 19:00 41.38694 -82.68584 33765 ft 405 kts 269°
2026-05-04 19:01 41.39108 -82.76462 33764 ft 405 kts 269°
2026-05-04 19:01 41.39513 -82.84305 33775 ft 403 kts 270°
2026-05-04 19:02 41.39913 -82.92133 33764 ft 398 kts 270°
2026-05-04 19:02 41.40302 -82.99849 33759 ft 393 kts 271°
2026-05-04 19:03 41.40687 -83.07590 33764 ft 393 kts 271°
2026-05-04 19:03 41.41071 -83.15381 33764 ft 393 kts 271°
2026-05-04 19:04 41.41441 -83.23052 33762 ft 393 kts 271°
2026-05-04 19:04 41.41811 -83.30786 33764 ft 392 kts 271°
2026-05-04 19:05 41.42173 -83.38465 33760 ft 392 kts 271°
2026-05-04 19:05 41.42533 -83.46280 33763 ft 393 kts 271°
2026-05-04 19:06 41.42892 -83.54105 33759 ft 393 kts 271°
2026-05-04 19:06 41.43240 -83.61842 33752 ft 394 kts 271°
2026-05-04 19:07 41.43582 -83.69535 33758 ft 393 kts 271°
2026-05-04 19:07 41.43922 -83.77291 33733 ft 396 kts 270°
2026-05-04 19:08 41.44257 -83.85093 33720 ft 395 kts 270°
2026-05-04 19:08 41.44583 -83.92797 33724 ft 395 kts 270°
2026-05-04 19:09 41.44910 -84.00652 33716 ft 395 kts 270°
2026-05-04 19:09 41.45232 -84.08499 33714 ft 395 kts 270°
2026-05-04 19:10 41.45546 -84.16317 33711 ft 395 kts 270°
2026-05-04 19:10 41.45857 -84.24167 33713 ft 395 kts 270°
2026-05-04 19:11 41.46162 -84.32011 33711 ft 395 kts 270°
2026-05-04 19:11 41.46460 -84.39790 33715 ft 394 kts 270°
2026-05-04 19:12 41.46889 -84.51286 33717 ft 395 kts 270°
2026-05-04 19:13 41.47172 -84.59009 33715 ft 394 kts 270°
2026-05-04 19:13 41.47448 -84.66702 33720 ft 396 kts 270°
2026-05-04 19:14 41.47718 -84.74371 33718 ft 394 kts 270°
2026-05-04 19:14 41.47984 -84.82059 33712 ft 395 kts 269°
2026-05-04 19:15 41.48249 -84.89889 33710 ft 395 kts 269°
2026-05-04 19:15 41.48510 -84.97736 33706 ft 394 kts 270°
2026-05-04 19:16 41.48759 -85.05434 33703 ft 387 kts 270°
2026-05-04 19:16 41.48999 -85.12964 33703 ft 379 kts 270°
2026-05-04 19:17 41.49227 -85.20314 33703 ft 373 kts 271°
2026-05-04 19:17 41.49450 -85.27572 33698 ft 372 kts 271°
2026-05-04 19:18 41.49672 -85.34972 33692 ft 374 kts 271°
2026-05-04 19:18 41.49891 -85.42421 33684 ft 373 kts 271°
2026-05-04 19:19 41.50104 -85.49847 33679 ft 373 kts 271°
2026-05-04 19:19 41.50313 -85.57323 33682 ft 374 kts 271°
2026-05-04 19:20 41.50517 -85.64782 33681 ft 373 kts 271°
2026-05-04 19:20 41.50713 -85.72123 33692 ft 374 kts 270°
2026-05-04 19:21 41.50906 -85.79538 33689 ft 373 kts 270°
2026-05-04 19:21 41.51096 -85.86998 33689 ft 373 kts 270°
2026-05-04 19:22 41.51278 -85.94347 33683 ft 373 kts 270°
2026-05-04 19:22 41.51455 -86.01684 33683 ft 373 kts 270°
2026-05-04 19:23 41.51626 -86.08974 33682 ft 373 kts 271°
2026-05-04 19:23 41.51793 -86.16254 33679 ft 373 kts 270°
2026-05-04 19:24 41.51955 -86.23541 33676 ft 373 kts 270°
2026-05-04 19:24 41.52114 -86.30882 33678 ft 373 kts 270°
2026-05-04 19:25 41.52268 -86.38209 33675 ft 373 kts 270°
2026-05-04 19:25 41.52416 -86.45521 33671 ft 373 kts 270°
2026-05-04 19:26 41.52560 -86.52863 33668 ft 373 kts 271°
2026-05-04 19:26 41.52700 -86.60169 33671 ft 374 kts 270°
2026-05-04 19:27 41.52835 -86.67513 33682 ft 373 kts 270°
2026-05-04 19:27 41.52966 -86.74835 33682 ft 373 kts 270°
2026-05-04 19:28 41.53094 -86.82301 33678 ft 373 kts 270°
2026-05-04 19:28 41.53218 -86.89777 33676 ft 373 kts 270°
2026-05-04 19:29 41.53334 -86.97201 33670 ft 369 kts 270°
2026-05-04 19:29 41.53446 -87.04469 33668 ft 366 kts 270°
2026-05-04 19:30 41.53549 -87.11610 33665 ft 362 kts 271°
2026-05-04 19:30 41.53650 -87.18727 33663 ft 362 kts 271°
2026-05-04 19:31 41.53744 -87.25798 33651 ft 363 kts 271°
2026-05-04 19:31 41.53834 -87.32937 33644 ft 362 kts 271°
2026-05-04 19:32 41.53921 -87.40001 33640 ft 363 kts 271°
2026-05-04 19:32 41.54002 -87.47133 33641 ft 363 kts 271°
2026-05-04 19:33 41.54082 -87.54358 33647 ft 362 kts 271°
2026-05-04 19:33 41.54156 -87.61571 33652 ft 362 kts 271°
2026-05-04 19:34 41.54225 -87.68838 33661 ft 363 kts 270°
2026-05-04 19:34 41.54291 -87.76066 33652 ft 362 kts 270°
2026-05-04 19:35 41.54351 -87.83322 33647 ft 362 kts 271°
2026-05-04 19:35 41.54408 -87.90503 33643 ft 362 kts 270°
2026-05-04 19:36 41.54459 -87.97716 33648 ft 363 kts 270°
2026-05-04 19:36 41.54506 -88.04999 33649 ft 362 kts 270°
2026-05-04 19:37 41.54549 -88.12221 33645 ft 362 kts 270°
2026-05-04 19:37 41.54587 -88.19463 33649 ft 363 kts 270°
2026-05-04 19:38 41.54621 -88.26710 33649 ft 363 kts 270°
2026-05-04 19:38 41.54551 -88.33980 33646 ft 362 kts 268°
2026-05-04 19:39 41.54285 -88.41229 33640 ft 363 kts 268°
2026-05-04 19:39 41.54015 -88.48438 33628 ft 363 kts 268°
2026-05-04 19:40 41.53738 -88.55652 33631 ft 362 kts 268°
2026-05-04 19:40 41.53453 -88.62874 33624 ft 363 kts 268°
2026-05-04 19:41 41.53164 -88.70136 33640 ft 363 kts 268°
2026-05-04 19:41 41.52868 -88.77412 33647 ft 362 kts 267°
2026-05-04 19:42 41.52572 -88.84609 33641 ft 362 kts 268°
2026-05-04 19:42 41.52271 -88.91785 33641 ft 363 kts 268°
2026-05-04 19:43 41.51967 -88.98923 33643 ft 363 kts 269°
2026-05-04 19:43 41.51660 -89.06066 33645 ft 362 kts 269°
2026-05-04 19:44 41.51349 -89.13187 33635 ft 363 kts 269°
2026-05-04 19:44 41.51031 -89.20355 33631 ft 363 kts 269°
2026-05-04 19:45 41.50708 -89.27584 33619 ft 363 kts 269°
2026-05-04 19:45 41.50379 -89.34812 33620 ft 363 kts 269°
2026-05-04 19:46 41.50042 -89.42016 33617 ft 363 kts 269°
2026-05-04 19:46 41.49809 -89.49133 33595 ft 362 kts 272°
2026-05-04 19:47 41.49515 -89.56280 33601 ft 364 kts 271°
2026-05-04 19:47 41.49186 -89.63396 33602 ft 363 kts 268°
2026-05-04 19:48 41.48813 -89.70647 33608 ft 364 kts 271°
2026-05-04 19:48 41.48352 -89.77837 33610 ft 365 kts 265°
2026-05-04 19:49 41.47869 -89.84821 33607 ft 363 kts 266°
2026-05-04 19:49 41.47555 -89.91822 33628 ft 364 kts 273°
2026-05-04 19:50 41.47350 -89.98788 33608 ft 363 kts 271°
2026-05-04 19:50 41.47033 -90.05813 33607 ft 365 kts 271°
2026-05-04 19:51 41.46687 -90.12839 33607 ft 364 kts 269°
2026-05-04 19:51 41.46270 -90.19781 33610 ft 363 kts 271°
2026-05-04 19:52 41.45938 -90.26753 33603 ft 363 kts 271°
2026-05-04 19:52 41.45553 -90.33820 33612 ft 365 kts 268°
2026-05-04 19:53 41.44950 -90.41064 33595 ft 363 kts 265°
2026-05-04 19:53 41.44479 -90.48277 33603 ft 364 kts 266°
2026-05-04 19:54 41.44206 -90.55550 33593 ft 363 kts 272°
2026-05-04 19:54 41.43737 -90.62766 33596 ft 365 kts 266°
2026-05-04 19:55 41.43435 -90.69965 33609 ft 363 kts 271°
2026-05-04 19:55 41.43087 -90.77205 33620 ft 364 kts 270°
2026-05-04 19:56 41.42520 -90.84432 33609 ft 365 kts 265°
2026-05-04 19:56 41.42168 -90.91672 33609 ft 363 kts 271°
2026-05-04 19:57 41.41715 -90.98900 33638 ft 365 kts 264°
2026-05-04 19:57 41.41130 -91.06075 33618 ft 363 kts 265°
2026-05-04 19:58 41.40660 -91.13174 33621 ft 365 kts 266°
2026-05-04 19:58 41.40350 -91.20289 33615 ft 363 kts 272°
2026-05-04 19:59 41.39944 -91.27383 33646 ft 365 kts 269°
2026-05-04 19:59 41.39583 -91.34591 33614 ft 364 kts 271°
2026-05-04 20:00 41.39153 -91.41812 33618 ft 364 kts 271°
2026-05-04 20:00 41.38608 -91.49093 33626 ft 366 kts 264°
2026-05-04 20:01 41.38134 -91.56349 33607 ft 364 kts 271°
2026-05-04 20:01 41.37565 -91.63588 33609 ft 365 kts 268°
2026-05-04 20:02 41.37192 -91.70843 33615 ft 365 kts 271°
2026-05-04 20:02 41.36768 -91.77982 33621 ft 365 kts 270°
2026-05-04 20:03 41.36309 -91.85037 33621 ft 364 kts 270°
2026-05-04 20:03 41.35838 -91.92002 33622 ft 365 kts 270°
2026-05-04 20:04 41.35244 -91.99010 33628 ft 366 kts 264°
2026-05-04 20:04 41.34614 -92.06040 33627 ft 365 kts 266°
2026-05-04 20:05 41.34240 -92.13174 33635 ft 365 kts 268°
2026-05-04 20:05 41.33625 -92.20379 33637 ft 364 kts 268°
2026-05-04 20:06 41.33267 -92.27545 33624 ft 364 kts 270°
2026-05-04 20:06 41.32664 -92.34664 33640 ft 365 kts 269°
2026-05-04 20:07 41.32260 -92.41873 33627 ft 363 kts 271°
2026-05-04 20:07 41.31778 -92.49078 33633 ft 365 kts 269°
2026-05-04 20:08 41.31196 -92.56250 33635 ft 363 kts 263°
2026-05-04 20:08 41.30489 -92.63377 33614 ft 363 kts 264°
2026-05-04 20:09 41.29903 -92.70413 33631 ft 364 kts 264°
2026-05-04 20:09 41.29345 -92.77494 33629 ft 363 kts 264°
2026-05-04 20:10 41.28939 -92.84543 33635 ft 363 kts 270°
2026-05-04 20:10 41.28518 -92.91600 33633 ft 364 kts 266°
2026-05-04 20:11 41.27803 -92.98792 33623 ft 370 kts 264°
2026-05-04 20:11 41.27171 -93.06033 33628 ft 374 kts 265°
2026-05-04 20:12 41.26582 -93.13309 33632 ft 378 kts 268°
2026-05-04 20:12 41.26194 -93.20741 33617 ft 377 kts 271°
2026-05-04 20:13 41.25637 -93.28033 33645 ft 378 kts 265°
2026-05-04 20:13 41.24874 -93.35420 33624 ft 377 kts 265°
2026-05-04 20:14 41.24211 -93.42877 33624 ft 377 kts 265°
2026-05-04 20:14 41.23754 -93.50352 33621 ft 377 kts 271°
2026-05-04 20:15 41.23150 -93.57807 33641 ft 378 kts 264°
2026-05-04 20:15 41.22540 -93.65280 33626 ft 376 kts 270°
2026-05-04 20:16 41.21989 -93.72762 33639 ft 377 kts 269°
2026-05-04 20:16 41.21265 -93.80192 33638 ft 379 kts 263°
2026-05-04 20:17 41.20497 -93.87655 33641 ft 378 kts 265°
2026-05-04 20:17 41.19812 -93.95143 33645 ft 379 kts 265°
2026-05-04 20:18 41.19188 -94.02636 33665 ft 378 kts 270°
2026-05-04 20:18 41.18725 -94.10101 33659 ft 378 kts 267°
2026-05-04 20:19 41.17936 -94.17556 33656 ft 377 kts 267°
2026-05-04 20:19 41.17417 -94.25030 33652 ft 378 kts 268°
2026-05-04 20:20 41.16765 -94.32539 33647 ft 377 kts 270°
2026-05-04 20:20 41.16084 -94.39998 33667 ft 379 kts 269°
2026-05-04 20:21 41.15469 -94.47369 33648 ft 376 kts 269°
2026-05-04 20:21 41.14458 -94.58582 33645 ft 378 kts 269°
2026-05-04 20:22 41.13767 -94.66039 33650 ft 378 kts 269°
2026-05-04 20:22 41.13072 -94.73515 33663 ft 379 kts 269°
2026-05-04 20:23 41.12285 -94.80973 33674 ft 378 kts 269°
2026-05-04 20:23 41.11662 -94.88228 33661 ft 374 kts 270°
2026-05-04 20:24 41.10987 -94.95440 33661 ft 372 kts 269°
2026-05-04 20:24 41.10105 -95.02708 33653 ft 368 kts 266°
2026-05-04 20:25 41.09412 -95.09966 33678 ft 366 kts 274°
2026-05-04 20:25 41.08767 -95.17248 33673 ft 370 kts 266°
2026-05-04 20:26 41.08086 -95.24327 33663 ft 366 kts 273°
2026-05-04 20:26 41.07322 -95.31502 33663 ft 370 kts 269°
2026-05-04 20:27 41.06628 -95.38615 33673 ft 368 kts 266°
2026-05-04 20:27 41.05899 -95.45669 33689 ft 365 kts 274°
2026-05-04 20:28 41.05180 -95.52842 33668 ft 369 kts 266°
2026-05-04 20:28 41.04530 -95.59945 33656 ft 368 kts 272°
2026-05-04 20:29 41.03886 -95.67117 33672 ft 368 kts 272°
2026-05-04 20:29 41.03189 -95.74362 33679 ft 369 kts 271°
2026-05-04 20:30 41.02303 -95.81589 33682 ft 370 kts 269°
2026-05-04 20:30 41.01641 -95.88863 33673 ft 368 kts 271°
2026-05-04 20:31 41.00940 -95.96047 33669 ft 369 kts 272°
2026-05-04 20:31 41.00109 -96.03295 33680 ft 372 kts 265°
2026-05-04 20:32 40.99182 -96.10546 33669 ft 369 kts 267°
2026-05-04 20:32 40.98382 -96.17741 33686 ft 371 kts 267°
2026-05-04 20:33 40.97662 -96.24930 33714 ft 369 kts 269°
2026-05-04 20:33 40.96891 -96.32161 33715 ft 367 kts 272°
2026-05-04 20:34 40.96297 -96.39286 33700 ft 367 kts 272°
2026-05-04 20:34 40.95572 -96.46380 33707 ft 370 kts 270°
2026-05-04 20:35 40.94637 -96.53506 33695 ft 370 kts 266°
2026-05-04 20:35 40.93932 -96.60642 33696 ft 368 kts 272°
2026-05-04 20:36 40.93224 -96.67752 33703 ft 370 kts 271°
2026-05-04 20:36 40.92346 -96.74995 33701 ft 372 kts 265°
2026-05-04 20:37 40.91648 -96.82071 33718 ft 369 kts 269°
2026-05-04 20:37 40.90832 -96.89378 33697 ft 370 kts 267°
2026-05-04 20:38 40.90087 -96.96645 33699 ft 370 kts 268°
2026-05-04 20:38 40.89496 -97.03937 33695 ft 373 kts 273°
2026-05-04 20:39 40.88755 -97.11382 33716 ft 383 kts 272°
2026-05-04 20:39 40.88129 -97.18996 33723 ft 391 kts 270°
2026-05-04 20:40 40.87243 -97.26756 33721 ft 395 kts 269°
2026-05-04 20:40 40.86563 -97.34380 33716 ft 390 kts 273°
2026-05-04 20:41 40.85687 -97.42020 33712 ft 393 kts 267°
2026-05-04 20:41 40.84838 -97.49731 33721 ft 394 kts 269°
2026-05-04 20:42 40.84182 -97.57448 33701 ft 391 kts 275°
2026-05-04 20:42 40.83392 -97.65134 33719 ft 396 kts 267°
2026-05-04 20:43 40.82488 -97.72835 33728 ft 395 kts 269°
2026-05-04 20:43 40.81825 -97.80466 33731 ft 393 kts 274°
2026-05-04 20:44 40.81068 -97.88121 33752 ft 395 kts 268°
2026-05-04 20:44 40.80112 -97.95684 33739 ft 393 kts 270°
2026-05-04 20:45 40.79460 -98.03211 33728 ft 391 kts 273°
2026-05-04 20:45 40.78713 -98.10744 33740 ft 394 kts 272°
2026-05-04 20:46 40.77758 -98.18340 33738 ft 396 kts 270°
2026-05-04 20:46 40.77026 -98.25926 33744 ft 394 kts 270°
2026-05-04 20:47 40.76040 -98.33550 33729 ft 393 kts 268°
2026-05-04 20:47 40.75177 -98.41125 33740 ft 395 kts 268°
2026-05-04 20:48 40.74327 -98.48641 33730 ft 395 kts 269°
2026-05-04 20:48 40.73484 -98.56161 33735 ft 394 kts 270°
2026-05-04 20:49 40.72818 -98.63735 33724 ft 392 kts 274°
2026-05-04 20:49 40.72064 -98.71250 33737 ft 395 kts 272°
2026-05-04 20:50 40.71235 -98.78804 33734 ft 395 kts 272°
2026-05-04 20:50 40.70370 -98.86491 33751 ft 394 kts 272°
2026-05-04 20:51 40.69488 -98.94203 33756 ft 398 kts 272°
2026-05-04 20:51 40.68592 -99.02041 33752 ft 406 kts 271°
2026-05-04 20:52 40.67659 -99.10043 33754 ft 412 kts 271°
2026-05-04 20:52 40.66547 -99.18105 33747 ft 417 kts 265°
2026-05-04 20:53 40.65518 -99.26241 33746 ft 414 kts 266°
2026-05-04 20:53 40.64587 -99.34302 33763 ft 412 kts 272°
2026-05-04 20:54 40.63736 -99.42423 33765 ft 416 kts 266°
2026-05-04 20:54 40.62753 -99.50463 33767 ft 416 kts 266°
2026-05-04 20:55 40.61665 -99.58579 33758 ft 414 kts 267°
2026-05-04 20:55 40.60674 -99.66644 33764 ft 414 kts 266°
2026-05-04 20:56 40.59689 -99.74737 33776 ft 415 kts 266°
2026-05-04 20:56 40.58778 -99.82787 33790 ft 414 kts 272°
2026-05-04 20:57 40.57951 -99.90743 33764 ft 412 kts 271°
2026-05-04 20:57 40.56890 -99.98686 33770 ft 419 kts 265°
2026-05-04 20:58 40.55939 -100.06770 33739 ft 412 kts 271°
2026-05-04 20:58 40.54940 -100.14857 33755 ft 418 kts 266°
2026-05-04 20:59 40.53822 -100.22942 33745 ft 416 kts 269°
2026-05-04 20:59 40.52743 -100.30891 33719 ft 416 kts 267°
2026-05-04 21:00 40.51855 -100.38928 33705 ft 413 kts 272°
2026-05-04 21:00 40.50892 -100.46986 33727 ft 416 kts 271°
2026-05-04 21:01 40.49864 -100.55124 33728 ft 416 kts 270°
2026-05-04 21:01 40.48819 -100.63191 33731 ft 417 kts 271°
2026-05-04 21:02 40.47774 -100.71250 33739 ft 416 kts 270°
2026-05-04 21:02 40.46709 -100.79360 33741 ft 417 kts 270°
2026-05-04 21:03 40.45644 -100.87451 33735 ft 419 kts 269°
2026-05-04 21:03 40.44562 -100.95586 33736 ft 424 kts 269°
2026-05-04 21:04 40.43383 -101.03853 33755 ft 431 kts 264°
2026-05-04 21:04 40.42317 -101.12167 33739 ft 425 kts 269°
2026-05-04 21:05 40.41227 -101.20345 33761 ft 427 kts 268°
2026-05-04 21:05 40.40120 -101.28610 33772 ft 428 kts 268°
2026-05-04 21:06 40.38933 -101.36549 33773 ft 430 kts 262°
2026-05-04 21:06 40.37715 -101.44771 33793 ft 427 kts 268°
2026-05-04 21:07 40.36746 -101.52892 33762 ft 428 kts 269°
2026-05-04 21:07 40.35509 -101.61020 33758 ft 428 kts 262°
2026-05-04 21:08 40.34304 -101.69068 33773 ft 421 kts 266°
2026-05-04 21:08 40.33354 -101.77098 33769 ft 422 kts 268°
2026-05-04 21:09 40.32272 -101.85169 33831 ft 423 kts 268°
2026-05-04 21:09 40.31068 -101.93147 33909 ft 424 kts 262°
2026-05-04 21:10 40.29910 -102.01111 33957 ft 421 kts 266°
2026-05-04 21:10 40.28685 -102.09086 33959 ft 420 kts 265°
2026-05-04 21:11 40.27697 -102.16893 33955 ft 420 kts 268°
2026-05-04 21:11 40.26498 -102.24718 33981 ft 423 kts 262°
2026-05-04 21:12 40.25257 -102.32581 33986 ft 421 kts 263°
2026-05-04 21:12 40.24092 -102.40399 33991 ft 422 kts 263°
2026-05-04 21:13 40.22906 -102.48426 33983 ft 420 kts 264°
2026-05-04 21:13 40.21746 -102.56385 33957 ft 423 kts 263°
2026-05-04 21:14 40.20560 -102.64346 33895 ft 422 kts 264°
2026-05-04 21:14 40.19458 -102.72340 33857 ft 425 kts 269°
2026-05-04 21:15 40.18354 -102.80256 33831 ft 424 kts 263°
2026-05-04 21:15 40.17212 -102.88160 33790 ft 423 kts 267°
2026-05-04 21:16 40.16046 -102.96092 33797 ft 425 kts 264°
2026-05-04 21:16 40.14672 -103.03985 33776 ft 424 kts 263°
2026-05-04 21:17 40.13422 -103.12106 33792 ft 427 kts 263°
2026-05-04 21:17 40.12321 -103.20199 33791 ft 428 kts 263°
2026-05-04 21:18 40.10940 -103.28317 33791 ft 427 kts 263°
2026-05-04 21:18 40.09766 -103.36437 33804 ft 428 kts 260°
2026-05-04 21:19 40.08385 -103.44563 33780 ft 427 kts 261°
2026-05-04 21:19 40.07215 -103.52850 33780 ft 427 kts 266°
2026-05-04 21:20 40.06022 -103.60938 33791 ft 427 kts 265°
2026-05-04 21:20 40.04762 -103.69131 33803 ft 427 kts 264°
2026-05-04 21:21 40.03448 -103.77387 33818 ft 430 kts 261°
2026-05-04 21:21 40.01980 -103.85536 33816 ft 428 kts 264°
2026-05-04 21:22 40.00757 -103.93642 33828 ft 429 kts 259°
2026-05-04 21:22 39.99405 -104.01769 33825 ft 428 kts 262°
2026-05-04 21:23 39.98006 -104.09901 33805 ft 428 kts 260°
2026-05-04 21:23 39.96742 -104.18091 33830 ft 427 kts 266°
2026-05-04 21:24 39.95499 -104.26159 33861 ft 429 kts 259°
2026-05-04 21:24 39.94177 -104.34106 33875 ft 428 kts 262°
2026-05-04 21:25 39.92765 -104.42024 33869 ft 427 kts 260°
2026-05-04 21:25 39.91537 -104.50010 33878 ft 428 kts 266°
2026-05-04 21:26 39.90173 -104.58057 33873 ft 428 kts 259°
2026-05-04 21:26 39.88948 -104.66051 33829 ft 424 kts 267°
2026-05-04 21:27 39.88760 -104.74210 33884 ft 422 kts 270°
2026-05-04 21:27 39.88478 -104.82304 33874 ft 423 kts 269°
2026-05-04 21:28 39.88202 -104.90421 33890 ft 423 kts 274°
2026-05-04 21:28 39.88016 -104.98482 33868 ft 428 kts 273°
2026-05-04 21:29 39.87702 -105.06699 33871 ft 435 kts 272°
2026-05-04 21:29 39.87340 -105.14977 33875 ft 438 kts 272°
2026-05-04 21:30 39.86964 -105.23256 33872 ft 437 kts 272°
2026-05-04 21:30 39.86573 -105.31344 33882 ft 438 kts 269°
2026-05-04 21:31 39.85764 -105.43644 33897 ft 436 kts 268°
2026-05-04 21:32 39.85340 -105.51872 33947 ft 437 kts 268°
2026-05-04 21:32 39.84932 -105.60001 33993 ft 437 kts 268°
2026-05-04 21:33 39.84526 -105.68251 34012 ft 438 kts 270°
2026-05-04 21:33 39.84261 -105.76453 34023 ft 438 kts 268°
2026-05-04 21:34 39.83786 -105.84621 34031 ft 437 kts 272°
2026-05-04 21:34 39.83444 -105.92816 34031 ft 438 kts 266°
2026-05-04 21:35 39.82984 -106.01025 34019 ft 437 kts 273°
2026-05-04 21:35 39.82635 -106.09371 34010 ft 437 kts 270°
2026-05-04 21:36 39.82065 -106.17696 34027 ft 438 kts 270°
2026-05-04 21:36 39.81530 -106.26102 34009 ft 437 kts 267°
2026-05-04 21:37 39.81073 -106.34460 34031 ft 438 kts 267°
2026-05-04 21:37 39.80593 -106.42815 34034 ft 437 kts 272°
2026-05-04 21:38 39.80297 -106.51118 34006 ft 436 kts 272°
2026-05-04 21:38 39.79723 -106.59409 34003 ft 438 kts 266°
2026-05-04 21:39 39.79241 -106.67775 34025 ft 438 kts 266°
2026-05-04 21:39 39.78655 -106.76080 34005 ft 437 kts 267°
2026-05-04 21:40 39.78234 -106.84473 34026 ft 438 kts 266°
2026-05-04 21:40 39.77784 -106.92793 34007 ft 434 kts 272°
2026-05-04 21:41 39.77361 -107.01093 34007 ft 434 kts 271°
2026-05-04 21:41 39.76861 -107.09368 34016 ft 434 kts 268°
2026-05-04 21:42 39.76157 -107.17662 34000 ft 433 kts 265°
2026-05-04 21:42 39.75721 -107.25919 34003 ft 433 kts 272°
2026-05-04 21:43 39.75240 -107.34225 34009 ft 435 kts 266°
2026-05-04 21:43 39.74645 -107.42554 33963 ft 433 kts 272°
2026-05-04 21:44 39.74101 -107.50806 33926 ft 435 kts 265°
2026-05-04 21:44 39.73565 -107.59133 33901 ft 433 kts 272°
2026-05-04 21:45 39.73089 -107.67461 33907 ft 434 kts 270°
2026-05-04 21:45 39.72413 -107.75893 33914 ft 436 kts 264°
2026-05-04 21:46 39.71724 -107.84274 33910 ft 434 kts 265°
2026-05-04 21:46 39.71120 -107.92664 33910 ft 435 kts 266°
2026-05-04 21:47 39.70616 -108.01041 33921 ft 435 kts 272°
2026-05-04 21:47 39.70178 -108.09326 33917 ft 434 kts 270°
2026-05-04 21:48 39.69610 -108.17725 33936 ft 435 kts 270°
2026-05-04 21:48 39.68976 -108.26113 33971 ft 436 kts 265°
2026-05-04 21:49 39.68181 -108.34516 33916 ft 434 kts 265°
2026-05-04 21:49 39.67530 -108.42828 33889 ft 435 kts 266°
2026-05-04 21:50 39.66895 -108.51205 33860 ft 435 kts 266°
2026-05-04 21:50 39.66392 -108.59467 33862 ft 435 kts 272°
2026-05-04 21:51 39.65789 -108.67761 33875 ft 436 kts 264°
2026-05-04 21:51 39.65062 -108.76182 33869 ft 436 kts 265°
2026-05-04 21:52 39.64380 -108.84415 33861 ft 435 kts 265°
2026-05-04 21:52 39.63811 -108.92729 33876 ft 435 kts 271°
2026-05-04 21:53 39.63304 -109.01018 33858 ft 436 kts 270°
2026-05-04 21:53 39.62566 -109.09484 33881 ft 446 kts 263°
2026-05-04 21:54 39.61850 -109.18076 33882 ft 448 kts 270°
2026-05-04 21:54 39.61266 -109.26654 33869 ft 450 kts 269°
2026-05-04 21:55 39.60600 -109.35033 33866 ft 450 kts 269°
2026-05-04 21:55 39.59891 -109.43442 33875 ft 451 kts 265°
2026-05-04 21:56 39.59020 -109.51890 33865 ft 450 kts 268°
2026-05-04 21:56 39.58438 -109.60494 33849 ft 449 kts 269°
2026-05-04 21:57 39.57588 -109.69096 33844 ft 451 kts 263°
2026-05-04 21:57 39.56779 -109.77692 33851 ft 450 kts 264°
2026-05-04 21:58 39.56184 -109.86346 33844 ft 450 kts 270°
2026-05-04 21:58 39.55513 -109.94963 33853 ft 450 kts 268°
2026-05-04 21:59 39.54689 -110.03567 33886 ft 452 kts 263°
2026-05-04 21:59 39.53914 -110.12296 33907 ft 450 kts 265°
2026-05-04 22:00 39.53153 -110.20938 33911 ft 449 kts 268°
2026-05-04 22:00 39.52275 -110.29520 33901 ft 450 kts 263°
2026-05-04 22:01 39.51435 -110.38151 33909 ft 450 kts 264°
2026-05-04 22:01 39.50668 -110.46817 33929 ft 451 kts 269°
2026-05-04 22:02 39.49945 -110.55439 33922 ft 450 kts 263°
2026-05-04 22:02 39.49070 -110.63955 33915 ft 450 kts 266°
2026-05-04 22:03 39.48445 -110.72343 33908 ft 451 kts 266°
2026-05-04 22:03 39.47528 -110.80707 33901 ft 450 kts 263°
2026-05-04 22:04 39.46688 -110.89038 33909 ft 451 kts 263°
2026-05-04 22:04 39.45995 -110.97488 33908 ft 454 kts 269°
2026-05-04 22:05 39.45243 -111.06087 33927 ft 458 kts 263°
2026-05-04 22:05 39.44228 -111.14813 33904 ft 458 kts 262°
2026-05-04 22:06 39.43335 -111.23550 33909 ft 458 kts 262°
2026-05-04 22:06 39.42464 -111.32262 33910 ft 458 kts 262°
2026-05-04 22:07 39.41587 -111.41041 33905 ft 458 kts 262°
2026-05-04 22:07 39.40704 -111.49825 33891 ft 458 kts 262°
2026-05-04 22:08 39.39830 -111.58560 33847 ft 457 kts 265°
2026-05-04 22:08 39.39124 -111.67303 33823 ft 456 kts 267°
2026-05-04 22:09 39.38285 -111.75981 33837 ft 457 kts 266°
2026-05-04 22:09 39.37242 -111.84711 33836 ft 458 kts 260°
2026-05-04 22:10 39.36267 -111.93402 33859 ft 457 kts 265°
2026-05-04 22:10 39.35518 -112.02155 33839 ft 457 kts 266°
2026-05-04 22:11 39.34562 -112.10834 33863 ft 458 kts 260°
2026-05-04 22:11 39.33637 -112.19543 33844 ft 457 kts 267°
2026-05-04 22:12 39.32673 -112.28260 33858 ft 458 kts 260°
2026-05-04 22:12 39.31603 -112.36996 33844 ft 457 kts 263°
2026-05-04 22:13 39.30803 -112.45712 33843 ft 457 kts 265°
2026-05-04 22:13 39.29738 -112.54395 33841 ft 457 kts 262°
2026-05-04 22:14 39.28756 -112.63046 33846 ft 457 kts 262°
2026-05-04 22:14 39.27782 -112.71718 33845 ft 458 kts 261°
2026-05-04 22:15 39.26881 -112.80430 33858 ft 458 kts 261°
2026-05-04 22:15 39.25876 -112.89136 33860 ft 460 kts 265°
2026-05-04 22:16 39.24883 -112.97970 33843 ft 465 kts 261°
2026-05-04 22:16 39.24012 -113.06866 33842 ft 469 kts 265°
2026-05-04 22:17 39.22944 -113.15727 33864 ft 468 kts 265°
2026-05-04 22:17 39.21943 -113.24535 33856 ft 468 kts 260°
2026-05-04 22:18 39.20818 -113.33455 33846 ft 468 kts 261°
2026-05-04 22:18 39.19778 -113.42281 33852 ft 468 kts 263°
2026-05-04 22:19 39.18919 -113.51170 33839 ft 467 kts 266°
2026-05-04 22:19 39.17935 -113.59981 33848 ft 468 kts 265°
2026-05-04 22:20 39.16864 -113.68843 33849 ft 468 kts 265°
2026-05-04 22:20 39.15754 -113.77699 33862 ft 469 kts 259°
2026-05-04 22:21 39.14649 -113.86480 33895 ft 467 kts 266°
2026-05-04 22:21 39.13606 -113.95295 33933 ft 468 kts 259°
2026-05-04 22:22 39.12412 -114.04113 33944 ft 467 kts 260°
2026-05-04 22:22 39.11353 -114.12941 33969 ft 468 kts 265°
2026-05-04 22:23 39.10429 -114.21785 33942 ft 466 kts 265°
2026-05-04 22:23 39.09369 -114.30559 33950 ft 468 kts 264°
2026-05-04 22:24 39.08107 -114.39336 33939 ft 467 kts 259°
2026-05-04 22:24 39.06943 -114.48096 33949 ft 467 kts 261°
2026-05-04 22:25 39.05808 -114.56936 33949 ft 468 kts 261°
2026-05-04 22:25 39.04685 -114.65733 33949 ft 467 kts 260°
2026-05-04 22:26 39.03564 -114.74529 33947 ft 467 kts 260°
2026-05-04 22:26 39.02494 -114.83279 33967 ft 467 kts 265°
2026-05-04 22:27 39.01361 -114.92079 33954 ft 466 kts 262°
2026-05-04 22:27 39.00339 -115.00867 33951 ft 466 kts 261°
2026-05-04 22:28 38.99050 -115.09586 33941 ft 468 kts 259°
2026-05-04 22:28 38.97868 -115.18220 33948 ft 468 kts 259°
2026-05-04 22:29 38.96709 -115.26881 33948 ft 468 kts 259°
2026-05-04 22:29 38.95533 -115.35671 33948 ft 465 kts 259°
2026-05-04 22:30 38.94445 -115.44386 33962 ft 464 kts 265°
2026-05-04 22:30 38.93416 -115.53033 33945 ft 461 kts 263°
2026-05-04 22:31 38.92240 -115.61739 33962 ft 461 kts 259°
2026-05-04 22:31 38.90939 -115.70329 33968 ft 457 kts 263°
2026-05-04 22:32 38.89884 -115.78851 33943 ft 456 kts 262°
2026-05-04 22:32 38.88597 -115.87312 33940 ft 455 kts 256°
2026-05-04 22:33 38.87322 -115.95834 33942 ft 452 kts 258°
2026-05-04 22:33 38.86124 -116.04280 33939 ft 453 kts 258°
2026-05-04 22:34 38.84942 -116.12779 33946 ft 453 kts 262°
2026-05-04 22:34 38.83926 -116.21277 33918 ft 452 kts 263°
2026-05-04 22:35 38.82689 -116.29675 33937 ft 454 kts 256°
2026-05-04 22:35 38.81501 -116.38093 33916 ft 452 kts 263°
2026-05-04 22:36 38.80357 -116.46526 33915 ft 452 kts 262°
2026-05-04 22:36 38.79143 -116.55033 33913 ft 453 kts 262°
2026-05-04 22:37 38.77912 -116.63512 33910 ft 453 kts 262°
2026-05-04 22:37 38.76675 -116.71977 33905 ft 453 kts 261°
2026-05-04 22:38 38.75432 -116.80400 33908 ft 453 kts 259°
2026-05-04 22:38 38.74059 -116.88759 33916 ft 452 kts 261°
2026-05-04 22:39 38.72787 -116.97263 33899 ft 461 kts 256°
2026-05-04 22:39 38.71561 -117.05926 33886 ft 472 kts 263°
2026-05-04 22:40 38.70292 -117.14847 33889 ft 480 kts 263°
2026-05-04 22:40 38.68960 -117.23834 33891 ft 479 kts 262°
2026-05-04 22:41 38.67598 -117.32745 33894 ft 478 kts 262°
2026-05-04 22:41 38.66200 -117.41727 33909 ft 480 kts 258°
2026-05-04 22:42 38.64740 -117.50621 33912 ft 478 kts 264°
2026-05-04 22:42 38.63464 -117.59603 33891 ft 478 kts 262°
2026-05-04 22:43 38.62098 -117.68500 33897 ft 479 kts 260°
2026-05-04 22:43 38.60662 -117.77412 33913 ft 480 kts 263°
2026-05-04 22:44 38.59271 -117.86368 33936 ft 480 kts 257°
2026-05-04 22:44 38.57705 -117.95298 33910 ft 479 kts 257°
2026-05-04 22:45 38.56304 -118.04145 33942 ft 480 kts 256°
2026-05-04 22:45 38.54001 -118.17513 33915 ft 480 kts 261°
2026-05-04 22:46 38.52357 -118.26299 33936 ft 481 kts 260°
2026-05-04 22:46 38.50690 -118.35092 33917 ft 479 kts 255°
2026-05-04 22:47 38.49087 -118.43870 33944 ft 480 kts 262°
2026-05-04 22:47 38.47581 -118.52729 33926 ft 480 kts 257°
2026-05-04 22:48 38.45849 -118.61451 33941 ft 480 kts 260°
2026-05-04 22:48 38.44353 -118.70149 33911 ft 479 kts 260°
2026-05-04 22:49 38.42624 -118.78774 33913 ft 481 kts 254°
2026-05-04 22:49 38.41000 -118.87479 33933 ft 480 kts 255°
2026-05-04 22:50 38.39303 -118.96255 33939 ft 479 kts 260°
2026-05-04 22:50 38.37786 -119.05015 33914 ft 480 kts 259°
2026-05-04 22:51 38.36141 -119.13771 33921 ft 481 kts 259°
2026-05-04 22:51 38.34467 -119.22578 33912 ft 480 kts 259°
2026-05-04 22:52 38.32713 -119.31233 33932 ft 481 kts 253°
2026-05-04 22:52 38.30940 -119.39770 33936 ft 479 kts 255°
2026-05-04 22:53 38.29347 -119.48462 33961 ft 480 kts 261°
2026-05-04 22:53 38.27779 -119.57058 33973 ft 480 kts 259°
2026-05-04 22:54 38.26143 -119.65527 33987 ft 480 kts 259°
2026-05-04 22:54 38.24480 -119.74010 34001 ft 480 kts 258°
2026-05-04 22:55 38.22825 -119.82443 34011 ft 480 kts 258°
2026-05-04 22:55 38.21014 -119.90897 34006 ft 480 kts 253°
2026-05-04 22:56 38.19325 -119.99338 34033 ft 479 kts 260°
2026-05-04 22:56 38.17614 -120.07910 34035 ft 479 kts 253°
2026-05-04 22:57 38.15950 -120.16564 34045 ft 480 kts 260°
2026-05-04 22:57 38.14295 -120.25128 34057 ft 478 kts 258°
2026-05-04 22:58 38.12574 -120.33708 34062 ft 480 kts 259°
2026-05-04 22:58 38.10861 -120.42194 34062 ft 479 kts 257°
2026-05-04 22:59 38.08965 -120.50761 34061 ft 480 kts 256°
2026-05-04 22:59 38.07333 -120.59316 34051 ft 479 kts 259°
2026-05-04 23:00 38.05569 -120.67735 34072 ft 481 kts 252°
2026-05-04 23:00 38.03687 -120.76208 34051 ft 479 kts 253°
2026-05-04 23:01 38.02063 -120.84637 34048 ft 479 kts 258°
2026-05-04 23:01 38.00293 -120.93109 34065 ft 479 kts 259°
2026-05-04 23:02 37.98609 -121.01612 34041 ft 479 kts 258°
2026-05-04 23:02 37.96836 -121.10152 34038 ft 480 kts 257°
2026-05-04 23:03 37.95015 -121.18668 34042 ft 481 kts 258°
2026-05-04 23:03 37.93252 -121.27196 34028 ft 479 kts 257°
2026-05-04 23:04 37.91439 -121.35756 34031 ft 481 kts 257°
2026-05-04 23:04 37.89506 -121.44204 34022 ft 480 kts 252°
2026-05-04 23:05 37.87616 -121.52695 34030 ft 480 kts 253°
2026-05-04 23:05 37.85764 -121.61268 34028 ft 480 kts 253°
2026-05-04 23:06 37.83950 -121.69840 34045 ft 481 kts 256°
2026-05-04 23:06 37.82098 -121.78371 34022 ft 479 kts 252°
2026-05-04 23:07 37.80255 -121.86863 34039 ft 481 kts 255°
2026-05-04 23:07 37.78545 -121.95365 34039 ft 481 kts 253°
2026-05-04 23:08 37.76664 -122.03936 34035 ft 480 kts 258°
2026-05-04 23:08 37.74759 -122.12434 34042 ft 480 kts 252°
2026-05-04 23:09 37.72941 -122.21031 34036 ft 480 kts 258°
2026-05-04 23:09 37.70952 -122.29437 34045 ft 480 kts 253°
2026-05-04 23:10 37.68707 -122.37791 34032 ft 480 kts 250°
2026-05-04 23:10 37.66692 -122.46296 34034 ft 480 kts 256°
2026-05-04 23:11 37.64624 -122.54797 34051 ft 480 kts 253°
2026-05-04 23:11 37.62364 -122.63152 34048 ft 480 kts 251°
2026-05-04 23:12 37.60342 -122.71663 34048 ft 480 kts 255°
2026-05-04 23:12 37.58263 -122.80079 34055 ft 480 kts 254°
2026-05-04 23:13 37.55995 -122.88491 34049 ft 481 kts 249°
2026-05-04 23:13 37.53787 -122.96855 34053 ft 478 kts 250°
2026-05-04 23:14 37.51643 -123.05209 34057 ft 476 kts 250°
2026-05-04 23:14 37.49507 -123.13528 34055 ft 473 kts 250°
2026-05-04 23:15 37.47427 -123.21835 34077 ft 474 kts 256°
2026-05-04 23:15 37.45402 -123.30187 34076 ft 474 kts 250°
2026-05-04 23:16 37.43274 -123.38493 34052 ft 472 kts 255°
2026-05-04 23:16 37.41161 -123.46775 34060 ft 473 kts 254°
2026-05-04 23:17 37.39007 -123.55102 34059 ft 473 kts 254°
2026-05-04 23:17 37.36842 -123.63394 34059 ft 473 kts 254°
2026-05-04 23:18 37.34657 -123.71471 34075 ft 474 kts 249°
2026-05-04 23:18 37.32470 -123.79751 34073 ft 474 kts 249°
2026-05-04 23:19 37.30193 -123.88012 34077 ft 473 kts 254°
2026-05-04 23:19 37.28144 -123.96310 34051 ft 473 kts 254°
2026-05-04 23:20 37.25967 -124.04604 34059 ft 473 kts 253°
2026-05-04 23:20 37.23742 -124.12851 34076 ft 474 kts 249°
2026-05-04 23:21 37.21380 -124.21053 34052 ft 473 kts 249°
2026-05-04 23:21 37.19154 -124.29256 34058 ft 474 kts 250°
2026-05-04 23:22 37.16917 -124.37550 34059 ft 473 kts 250°
2026-05-04 23:22 37.14701 -124.45759 34060 ft 473 kts 250°
2026-05-04 23:23 37.12471 -124.54011 34057 ft 473 kts 250°
2026-05-04 23:23 37.10242 -124.62221 34058 ft 473 kts 250°
2026-05-04 23:24 37.07998 -124.70461 34051 ft 474 kts 249°
2026-05-04 23:24 37.05771 -124.78616 34058 ft 475 kts 250°
2026-05-04 23:25 37.03622 -124.86912 34053 ft 474 kts 256°
2026-05-04 23:25 37.01349 -124.95094 34056 ft 472 kts 249°
2026-05-04 23:26 36.99057 -125.03178 34052 ft 469 kts 251°
2026-05-04 23:26 36.96957 -125.11373 34059 ft 467 kts 257°
2026-05-04 23:27 36.94876 -125.19496 34052 ft 467 kts 256°
2026-05-04 23:27 36.92691 -125.27631 34053 ft 468 kts 256°
2026-05-04 23:28 36.90455 -125.35689 34076 ft 469 kts 251°
2026-05-04 23:28 36.88115 -125.43724 34054 ft 467 kts 252°
2026-05-04 23:29 36.85869 -125.51799 34045 ft 468 kts 252°
2026-05-04 23:29 36.83656 -125.59888 34048 ft 468 kts 252°
2026-05-04 23:30 36.81429 -125.67926 34042 ft 468 kts 251°
2026-05-04 23:30 36.79226 -125.76072 34065 ft 469 kts 256°
2026-05-04 23:31 36.77055 -125.84138 34055 ft 468 kts 250°
2026-05-04 23:31 36.74735 -125.92188 34042 ft 468 kts 251°
2026-05-04 23:32 36.72468 -126.00268 34043 ft 468 kts 251°
2026-05-04 23:32 36.70340 -126.08359 34041 ft 468 kts 257°
2026-05-04 23:33 36.68174 -126.16445 34044 ft 468 kts 256°
2026-05-04 23:33 36.65930 -126.24498 34046 ft 469 kts 255°
2026-05-04 23:34 36.63554 -126.32521 34046 ft 469 kts 249°
2026-05-04 23:34 36.61293 -126.40572 34048 ft 467 kts 257°
2026-05-04 23:35 36.59089 -126.48613 34057 ft 469 kts 252°
2026-05-04 23:35 36.56765 -126.56670 34050 ft 467 kts 256°
2026-05-04 23:36 36.54538 -126.64668 34047 ft 468 kts 255°
2026-05-04 23:36 36.52204 -126.72633 34064 ft 470 kts 249°
2026-05-04 23:37 36.49777 -126.80563 34041 ft 468 kts 250°
2026-05-04 23:37 36.47544 -126.88622 34050 ft 468 kts 256°
2026-05-04 23:38 36.45274 -126.96654 34068 ft 469 kts 249°
2026-05-04 23:38 36.42906 -127.04671 34062 ft 466 kts 256°
2026-05-04 23:39 36.40677 -127.12630 34064 ft 465 kts 251°
2026-05-04 23:39 36.38220 -127.20490 34042 ft 463 kts 251°
2026-05-04 23:40 36.35960 -127.28425 34060 ft 463 kts 257°
2026-05-04 23:40 36.33666 -127.36332 34060 ft 464 kts 250°
2026-05-04 23:41 36.31305 -127.44213 34070 ft 462 kts 257°
2026-05-04 23:41 36.29098 -127.52144 34055 ft 463 kts 253°
2026-05-04 23:42 36.26621 -127.59973 34041 ft 463 kts 250°
2026-05-04 23:42 36.24258 -127.67801 34047 ft 463 kts 250°
2026-05-04 23:43 36.21908 -127.75665 34047 ft 463 kts 251°
2026-05-04 23:43 36.19560 -127.83541 34049 ft 463 kts 251°
2026-05-04 23:44 36.17308 -127.91467 34047 ft 462 kts 256°
2026-05-04 23:44 36.14915 -127.99290 34043 ft 464 kts 250°
2026-05-04 23:45 36.12541 -128.07103 34069 ft 463 kts 255°
2026-05-04 23:45 36.10309 -128.15067 34044 ft 462 kts 255°
2026-05-04 23:46 36.07917 -128.22900 34071 ft 465 kts 249°
2026-05-04 23:46 36.05503 -128.30705 34062 ft 462 kts 256°
2026-05-04 23:47 36.03088 -128.38486 34047 ft 464 kts 249°
2026-05-04 23:47 36.00634 -128.46280 34049 ft 463 kts 250°
2026-05-04 23:48 35.98233 -128.54086 34051 ft 463 kts 251°
2026-05-04 23:48 35.95853 -128.61844 34053 ft 463 kts 252°
2026-05-04 23:49 35.93516 -128.69609 34056 ft 463 kts 249°
2026-05-04 23:49 35.91119 -128.77249 34050 ft 463 kts 250°
2026-05-04 23:50 35.88838 -128.85092 34034 ft 463 kts 256°
2026-05-04 23:50 35.86376 -128.92842 34040 ft 463 kts 249°
2026-05-04 23:51 35.83939 -129.00517 34060 ft 457 kts 254°
2026-05-04 23:51 35.81715 -129.08209 34038 ft 453 kts 255°
2026-05-04 23:52 35.79364 -129.15855 34043 ft 451 kts 254°
2026-05-04 23:52 35.76876 -129.23334 34041 ft 453 kts 250°
2026-05-04 23:53 35.74421 -129.30917 34043 ft 451 kts 250°
2026-05-04 23:53 35.72022 -129.38461 34042 ft 452 kts 250°
2026-05-04 23:54 35.69752 -129.46043 34044 ft 452 kts 256°
2026-05-04 23:54 35.67458 -129.53638 34041 ft 451 kts 254°
2026-05-04 23:55 35.65007 -129.61173 34061 ft 453 kts 248°
2026-05-04 23:56 35.61291 -129.72523 34066 ft 452 kts 255°
2026-05-04 23:56 35.58994 -129.80040 34068 ft 453 kts 249°
2026-05-04 23:57 35.56459 -129.87518 34041 ft 452 kts 249°
2026-05-04 23:57 35.54038 -129.95082 34063 ft 452 kts 253°
2026-05-04 23:58 35.51761 -130.02710 34038 ft 451 kts 254°
2026-05-04 23:58 35.49366 -130.10234 34049 ft 453 kts 252°
2026-05-04 23:59 35.46776 -130.17702 34037 ft 452 kts 248°
2026-05-04 23:59 35.44302 -130.25157 34046 ft 452 kts 249°
2026-05-05 00:00 35.41862 -130.32729 34066 ft 452 kts 253°
2026-05-05 00:00 35.39565 -130.40303 34042 ft 451 kts 254°
2026-05-05 00:01 35.37167 -130.47786 34046 ft 452 kts 253°
2026-05-05 00:01 35.34605 -130.55307 34059 ft 453 kts 252°
2026-05-05 00:02 35.32091 -130.62736 34040 ft 452 kts 248°
2026-05-05 00:02 35.29637 -130.70297 34063 ft 453 kts 253°
2026-05-05 00:03 35.27094 -130.77818 34038 ft 451 kts 248°
2026-05-05 00:03 35.24725 -130.85289 34046 ft 451 kts 254°
2026-05-05 00:04 35.22355 -130.92732 34044 ft 448 kts 252°
2026-05-05 00:04 35.19908 -131.00145 34047 ft 447 kts 251°
2026-05-05 00:05 35.17442 -131.07562 34047 ft 446 kts 251°
2026-05-05 00:05 35.14936 -131.14894 34066 ft 448 kts 246°
2026-05-05 00:06 35.12431 -131.22260 34048 ft 445 kts 252°
2026-05-05 00:06 35.10027 -131.29617 34055 ft 447 kts 249°
2026-05-05 00:07 35.07395 -131.36922 34039 ft 446 kts 247°
2026-05-05 00:07 35.04884 -131.44253 34044 ft 446 kts 247°
2026-05-05 00:08 35.02506 -131.51657 34045 ft 446 kts 253°
2026-05-05 00:08 35.00060 -131.59021 34067 ft 446 kts 246°
2026-05-05 00:09 34.97481 -131.66292 34068 ft 444 kts 251°
2026-05-05 00:09 34.95123 -131.73645 34046 ft 443 kts 251°
2026-05-05 00:10 34.92588 -131.80959 34069 ft 444 kts 245°
2026-05-05 00:10 34.90013 -131.88136 34066 ft 442 kts 251°
2026-05-05 00:11 34.87633 -131.95465 34062 ft 441 kts 248°
2026-05-05 00:11 34.85015 -132.02638 34040 ft 441 kts 246°
2026-05-05 00:12 34.82486 -132.09869 34043 ft 442 kts 246°
2026-05-05 00:12 34.79951 -132.17180 34045 ft 442 kts 247°
2026-05-05 00:13 34.77436 -132.24443 34044 ft 441 kts 247°
2026-05-05 00:13 34.74935 -132.31668 34049 ft 442 kts 249°
2026-05-05 00:14 34.72590 -132.38962 34036 ft 440 kts 252°
2026-05-05 00:14 34.70076 -132.46187 34070 ft 443 kts 245°
2026-05-05 00:15 34.67442 -132.53337 34055 ft 441 kts 250°
2026-05-05 00:15 34.64885 -132.60582 34041 ft 441 kts 246°
2026-05-05 00:16 34.62352 -132.67799 34064 ft 442 kts 250°
2026-05-05 00:16 34.59934 -132.75092 34064 ft 442 kts 246°
2026-05-05 00:17 34.57331 -132.82243 34069 ft 442 kts 249°
2026-05-05 00:17 34.54737 -132.89401 34039 ft 441 kts 246°
2026-05-05 00:18 34.52217 -132.96634 34064 ft 442 kts 246°
2026-05-05 00:18 34.49609 -133.03795 34042 ft 439 kts 246°
2026-05-05 00:19 34.47163 -133.10988 34051 ft 437 kts 252°
2026-05-05 00:19 34.44657 -133.18056 34053 ft 434 kts 245°
2026-05-05 00:20 34.42113 -133.25082 34065 ft 433 kts 252°
2026-05-05 00:20 34.39666 -133.32198 34064 ft 434 kts 246°
2026-05-05 00:21 34.37013 -133.39153 34041 ft 433 kts 247°
2026-05-05 00:21 34.34599 -133.46258 34036 ft 433 kts 251°
2026-05-05 00:22 34.32087 -133.53288 34047 ft 433 kts 251°
2026-05-05 00:22 34.29597 -133.60330 34044 ft 433 kts 250°
2026-05-05 00:23 34.26939 -133.67217 34035 ft 434 kts 245°
2026-05-05 00:23 34.24364 -133.74115 34050 ft 434 kts 246°
2026-05-05 00:24 34.21805 -133.81097 34046 ft 433 kts 246°
2026-05-05 00:24 34.19251 -133.88100 34048 ft 434 kts 247°
2026-05-05 00:25 34.16832 -133.95213 34037 ft 433 kts 251°
2026-05-05 00:25 34.14237 -134.02226 34056 ft 434 kts 244°
2026-05-05 00:26 34.11679 -134.09187 34053 ft 433 kts 251°
2026-05-05 00:26 34.09152 -134.16199 34069 ft 434 kts 245°
2026-05-05 00:27 34.06533 -134.23120 34065 ft 433 kts 251°
2026-05-05 00:27 34.03999 -134.30139 34066 ft 434 kts 244°
2026-05-05 00:28 34.01299 -134.37058 34043 ft 433 kts 246°
2026-05-05 00:28 33.98693 -134.44017 34046 ft 434 kts 246°
2026-05-05 00:29 33.96243 -134.51019 34035 ft 433 kts 251°
2026-05-05 00:29 33.93737 -134.58019 34042 ft 433 kts 250°
2026-05-05 00:30 33.91150 -134.65028 34042 ft 433 kts 249°
2026-05-05 00:30 33.88545 -134.72009 34046 ft 434 kts 249°
2026-05-05 00:31 33.85818 -134.78932 34046 ft 434 kts 245°
2026-05-05 00:31 33.83287 -134.85899 34036 ft 432 kts 250°
2026-05-05 00:32 33.80720 -134.92850 34047 ft 432 kts 249°
2026-05-05 00:32 33.78134 -134.99713 34060 ft 429 kts 245°
2026-05-05 00:33 33.75378 -135.06500 34038 ft 429 kts 243°
2026-05-05 00:33 33.72760 -135.13371 34066 ft 432 kts 247°
2026-05-05 00:34 33.70230 -135.20290 34063 ft 431 kts 242°
2026-05-05 00:34 33.67521 -135.27132 34044 ft 431 kts 243°
2026-05-05 00:35 33.65030 -135.34084 34033 ft 432 kts 248°
2026-05-05 00:35 33.62474 -135.40985 34044 ft 431 kts 247°
2026-05-05 00:36 33.59817 -135.47844 34067 ft 432 kts 242°
2026-05-05 00:36 33.57077 -135.54656 34066 ft 431 kts 248°
2026-05-05 00:37 33.54468 -135.61552 34057 ft 431 kts 242°
2026-05-05 00:37 33.51765 -135.68364 34057 ft 431 kts 246°
2026-05-05 00:38 33.49279 -135.75278 34040 ft 431 kts 247°
2026-05-05 00:38 33.46578 -135.82095 34052 ft 432 kts 242°
2026-05-05 00:39 33.43984 -135.88988 34039 ft 430 kts 247°
2026-05-05 00:39 33.41384 -135.95811 34044 ft 431 kts 246°
2026-05-05 00:40 33.38605 -136.02589 34035 ft 431 kts 241°
2026-05-05 00:40 33.36010 -136.09412 34042 ft 431 kts 248°
2026-05-05 00:41 33.33298 -136.16213 34051 ft 432 kts 244°
2026-05-05 00:41 33.30729 -136.23080 34038 ft 431 kts 247°
2026-05-05 00:42 33.27958 -136.29860 34038 ft 432 kts 241°
2026-05-05 00:42 33.25205 -136.36650 34042 ft 431 kts 242°
2026-05-05 00:43 33.22505 -136.43488 34051 ft 432 kts 245°
2026-05-05 00:43 33.19993 -136.50351 34035 ft 430 kts 246°
2026-05-05 00:44 33.17203 -136.57103 34034 ft 431 kts 242°
2026-05-05 00:44 33.14479 -136.63911 34061 ft 432 kts 246°
2026-05-05 00:45 33.11938 -136.70787 34040 ft 430 kts 246°
2026-05-05 00:45 33.09278 -136.77577 34048 ft 432 kts 244°
2026-05-05 00:46 33.06414 -136.84329 34037 ft 429 kts 240°
2026-05-05 00:46 33.03728 -136.91036 34066 ft 428 kts 246°
2026-05-05 00:47 33.01192 -136.97800 34040 ft 426 kts 245°
2026-05-05 00:47 32.98543 -137.04515 34042 ft 426 kts 244°
2026-05-05 00:48 32.95838 -137.11249 34045 ft 425 kts 244°
2026-05-05 00:48 32.93151 -137.17918 34057 ft 425 kts 240°
2026-05-05 00:49 32.90346 -137.24472 34056 ft 425 kts 243°
2026-05-05 00:49 32.87792 -137.31169 34042 ft 425 kts 244°
2026-05-05 00:50 32.85097 -137.37924 34048 ft 425 kts 244°
2026-05-05 00:50 32.82411 -137.44589 34045 ft 425 kts 244°
2026-05-05 00:51 32.79592 -137.51169 34043 ft 424 kts 238°
2026-05-05 00:51 32.76843 -137.57724 34062 ft 426 kts 243°
2026-05-05 00:52 32.74276 -137.64465 34039 ft 425 kts 244°
2026-05-05 00:52 32.71561 -137.71114 34069 ft 425 kts 238°
2026-05-05 00:53 32.68707 -137.77675 34042 ft 424 kts 239°
2026-05-05 00:53 32.66036 -137.84345 34062 ft 426 kts 245°
2026-05-05 00:54 32.63437 -137.91008 34050 ft 425 kts 241°
2026-05-05 00:54 32.60657 -137.97615 34058 ft 425 kts 244°
2026-05-05 00:55 32.58009 -138.04257 34043 ft 424 kts 243°
2026-05-05 00:55 32.55272 -138.10930 34047 ft 425 kts 243°
2026-05-05 00:56 32.52557 -138.17517 34045 ft 425 kts 243°
2026-05-05 00:56 32.49816 -138.24139 34046 ft 425 kts 243°
2026-05-05 00:57 32.47021 -138.30736 34066 ft 425 kts 238°
2026-05-05 00:57 32.44235 -138.37265 34057 ft 425 kts 245°
2026-05-05 00:58 32.41560 -138.43909 34042 ft 424 kts 244°
2026-05-05 00:58 32.38812 -138.50491 34062 ft 426 kts 242°
2026-05-05 00:59 32.36080 -138.57103 34038 ft 425 kts 243°
2026-05-05 00:59 32.33224 -138.63632 34057 ft 426 kts 242°
2026-05-05 01:00 32.30550 -138.70247 34038 ft 424 kts 243°
2026-05-05 01:00 32.27720 -138.76758 34050 ft 425 kts 238°
2026-05-05 01:01 32.25002 -138.83347 34038 ft 425 kts 243°
2026-05-05 01:01 32.22144 -138.89844 34036 ft 424 kts 237°
2026-05-05 01:02 32.19328 -138.96327 34042 ft 424 kts 238°
2026-05-05 01:02 32.16551 -139.02841 34043 ft 424 kts 238°
2026-05-05 01:03 32.13781 -139.09369 34045 ft 423 kts 239°
2026-05-05 01:03 32.11170 -139.15955 34036 ft 423 kts 241°
2026-05-05 01:04 32.08351 -139.22307 34031 ft 421 kts 237°
2026-05-05 01:04 32.04371 -139.31996 34050 ft 422 kts 239°
2026-05-05 01:05 32.01536 -139.38486 34055 ft 422 kts 243°
2026-05-05 01:05 31.98846 -139.44989 34041 ft 422 kts 241°
2026-05-05 01:06 31.96081 -139.51488 34037 ft 422 kts 241°
2026-05-05 01:06 31.93263 -139.57956 34061 ft 422 kts 236°
2026-05-05 01:07 31.90312 -139.64365 34036 ft 421 kts 237°
2026-05-05 01:07 31.87591 -139.70915 34046 ft 423 kts 242°
2026-05-05 01:08 31.84932 -139.77284 34052 ft 421 kts 239°
2026-05-05 01:08 31.82048 -139.83640 34068 ft 422 kts 241°
2026-05-05 01:09 31.79369 -139.90120 34042 ft 421 kts 241°
2026-05-05 01:09 31.76591 -139.96576 34049 ft 421 kts 241°
2026-05-05 01:10 31.73778 -140.03067 34047 ft 421 kts 241°
2026-05-05 01:10 31.70885 -140.09398 34045 ft 420 kts 235°
2026-05-05 01:11 31.67990 -140.15790 34060 ft 422 kts 240°
2026-05-05 01:11 31.65291 -140.22362 34041 ft 422 kts 241°
2026-05-05 01:12 31.62359 -140.28729 34035 ft 420 kts 236°
2026-05-05 01:12 31.59526 -140.35069 34061 ft 423 kts 240°
2026-05-05 01:13 31.56720 -140.41507 34044 ft 420 kts 236°
2026-05-05 01:13 31.53897 -140.47969 34065 ft 423 kts 243°
2026-05-05 01:14 31.51170 -140.54393 34065 ft 421 kts 236°
2026-05-05 01:14 31.48278 -140.60785 34071 ft 422 kts 242°
2026-05-05 01:15 31.45529 -140.67276 34061 ft 422 kts 240°
2026-05-05 01:15 31.42712 -140.73691 34072 ft 422 kts 240°
2026-05-05 01:16 31.39770 -140.80025 34079 ft 422 kts 234°
2026-05-05 01:16 31.36837 -140.86337 34078 ft 421 kts 236°
2026-05-05 01:17 31.33958 -140.92726 34080 ft 419 kts 236°
2026-05-05 01:17 31.31230 -140.99078 34094 ft 414 kts 239°
2026-05-05 01:18 31.28521 -141.05284 34084 ft 407 kts 242°
2026-05-05 01:18 31.25850 -141.11435 34076 ft 401 kts 241°
2026-05-05 01:19 31.23105 -141.17487 34100 ft 400 kts 235°
2026-05-05 01:19 31.20253 -141.23418 34072 ft 400 kts 236°
2026-05-05 01:20 31.17488 -141.29457 34074 ft 401 kts 236°
2026-05-05 01:20 31.14748 -141.35495 34074 ft 401 kts 237°
2026-05-05 01:21 31.12006 -141.41557 34075 ft 402 kts 237°
2026-05-05 01:21 31.09507 -141.47061 34073 ft 401 kts 237°
2026-05-05 01:22 31.06794 -141.53046 34075 ft 401 kts 237°
2026-05-05 01:22 31.04106 -141.59045 34094 ft 403 kts 240°
2026-05-05 01:23 31.01427 -141.64914 34075 ft 399 kts 239°
2026-05-05 01:23 30.98888 -141.70869 34078 ft 398 kts 240°
2026-05-05 01:24 30.96091 -141.76750 34090 ft 397 kts 241°
2026-05-05 01:24 30.93332 -141.82689 34075 ft 397 kts 238°
2026-05-05 01:25 30.90661 -141.88701 34084 ft 398 kts 245°
2026-05-05 01:25 30.88025 -141.94733 34083 ft 399 kts 245°
2026-05-05 01:26 30.85217 -142.00671 34091 ft 400 kts 239°
2026-05-05 01:26 30.82442 -142.06604 34101 ft 399 kts 244°
2026-05-05 01:27 30.79777 -142.12657 34076 ft 398 kts 245°
2026-05-05 01:27 30.77071 -142.18593 34081 ft 399 kts 244°
2026-05-05 01:28 30.74185 -142.24492 34091 ft 399 kts 243°
2026-05-05 01:28 30.71362 -142.30421 34074 ft 399 kts 240°
2026-05-05 01:29 30.68649 -142.36391 34094 ft 399 kts 246°
2026-05-05 01:29 30.66072 -142.42252 34077 ft 399 kts 245°
2026-05-05 01:30 30.63399 -142.48077 34073 ft 399 kts 245°
2026-05-05 01:30 30.60595 -142.53860 34081 ft 400 kts 238°
2026-05-05 01:31 30.57749 -142.59654 34074 ft 398 kts 240°
2026-05-05 01:31 30.55071 -142.65655 34076 ft 399 kts 245°
2026-05-05 01:32 30.52359 -142.71614 34083 ft 399 kts 244°
2026-05-05 01:32 30.49458 -142.77487 34074 ft 399 kts 239°
2026-05-05 01:33 30.46767 -142.83427 34078 ft 397 kts 245°
2026-05-05 01:33 30.44053 -142.89320 34086 ft 389 kts 244°
2026-05-05 01:34 30.41358 -142.94989 34104 ft 384 kts 238°
2026-05-05 01:34 30.38618 -143.00658 34097 ft 378 kts 245°
2026-05-05 01:35 30.36084 -143.06265 34075 ft 373 kts 243°
2026-05-05 01:35 30.33476 -143.11829 34080 ft 375 kts 243°
2026-05-05 01:36 30.30784 -143.17358 34094 ft 375 kts 237°
2026-05-05 01:36 30.28022 -143.22835 34085 ft 375 kts 241°
2026-05-05 01:37 30.25495 -143.28456 34088 ft 375 kts 240°
2026-05-05 01:37 30.22736 -143.33934 34070 ft 374 kts 238°
2026-05-05 01:38 30.20177 -143.39522 34073 ft 375 kts 245°
2026-05-05 01:38 30.17545 -143.45068 34093 ft 375 kts 242°
2026-05-05 01:39 30.15012 -143.50591 34066 ft 374 kts 243°
2026-05-05 01:39 30.12265 -143.56044 34066 ft 375 kts 238°
2026-05-05 01:40 30.09533 -143.61522 34068 ft 374 kts 239°
2026-05-05 01:40 30.06863 -143.67070 34099 ft 375 kts 242°
2026-05-05 01:41 30.04379 -143.72673 34074 ft 374 kts 244°
2026-05-05 01:41 30.01762 -143.78241 34082 ft 375 kts 243°
2026-05-05 01:42 29.99132 -143.83749 34079 ft 374 kts 243°
2026-05-05 01:42 29.96330 -143.89227 34083 ft 375 kts 240°
2026-05-05 01:43 29.93736 -143.94777 34087 ft 374 kts 240°
2026-05-05 01:43 29.90976 -144.00255 34099 ft 374 kts 243°
2026-05-05 01:44 29.88410 -144.05774 34099 ft 374 kts 243°
2026-05-05 01:44 29.85790 -144.11293 34083 ft 375 kts 243°
2026-05-05 01:45 29.83126 -144.16811 34083 ft 375 kts 243°
2026-05-05 01:45 29.80412 -144.22257 34101 ft 375 kts 237°
2026-05-05 01:46 29.77589 -144.27670 34079 ft 374 kts 240°
2026-05-05 01:46 29.74943 -144.33195 34094 ft 375 kts 238°
2026-05-05 01:47 29.72205 -144.38614 34078 ft 374 kts 238°
2026-05-05 01:47 29.69506 -144.44081 34076 ft 375 kts 239°
2026-05-05 01:48 29.66933 -144.49629 34078 ft 376 kts 243°
2026-05-05 01:48 29.64179 -144.55095 34079 ft 375 kts 241°
2026-05-05 01:49 29.61622 -144.60637 34066 ft 374 kts 243°
2026-05-05 01:49 29.58908 -144.66011 34085 ft 375 kts 237°
2026-05-05 01:50 29.56111 -144.71428 34084 ft 375 kts 238°
2026-05-05 01:50 29.53395 -144.76869 34086 ft 375 kts 238°
2026-05-05 01:51 29.50710 -144.82333 34102 ft 376 kts 242°
2026-05-05 01:51 29.48016 -144.87785 34079 ft 374 kts 239°
2026-05-05 01:52 29.45459 -144.93295 34074 ft 375 kts 243°
2026-05-05 01:52 29.42677 -144.98741 34086 ft 373 kts 240°
2026-05-05 01:53 29.40062 -145.04146 34101 ft 368 kts 240°
2026-05-05 01:53 29.37352 -145.09320 34078 ft 367 kts 242°
2026-05-05 01:54 29.34742 -145.14662 34102 ft 368 kts 246°
2026-05-05 01:54 29.32037 -145.20012 34095 ft 369 kts 251°
2026-05-05 01:55 29.29485 -145.25534 34070 ft 371 kts 252°
2026-05-05 01:55 29.26837 -145.30928 34075 ft 372 kts 251°
2026-05-05 01:56 29.24014 -145.36269 34085 ft 372 kts 249°
2026-05-05 01:56 29.21393 -145.41722 34070 ft 371 kts 251°
2026-05-05 01:57 29.18613 -145.47073 34076 ft 374 kts 245°
2026-05-05 01:57 29.15895 -145.52437 34085 ft 370 kts 252°
2026-05-05 01:58 29.13223 -145.57808 34086 ft 373 kts 245°
2026-05-05 01:58 29.10409 -145.63123 34066 ft 374 kts 246°
2026-05-05 01:59 29.07714 -145.68669 34096 ft 381 kts 252°
2026-05-05 01:59 29.04986 -145.74213 34111 ft 388 kts 244°
2026-05-05 02:00 29.02000 -145.79799 34088 ft 394 kts 245°
2026-05-05 02:00 28.99034 -145.85568 34086 ft 399 kts 245°
2026-05-05 02:01 28.96141 -145.91344 34108 ft 403 kts 250°
2026-05-05 02:01 28.93317 -145.97282 34090 ft 406 kts 247°
2026-05-05 02:02 28.90210 -146.03070 34077 ft 404 kts 244°
2026-05-05 02:02 28.87247 -146.08864 34100 ft 404 kts 249°
2026-05-05 02:03 28.84329 -146.14717 34090 ft 406 kts 243°
2026-05-05 02:03 28.81277 -146.20522 34089 ft 405 kts 248°
2026-05-05 02:04 28.78444 -146.26427 34069 ft 403 kts 249°
2026-05-05 02:04 28.75515 -146.32181 34094 ft 406 kts 244°
2026-05-05 02:05 28.72375 -146.37927 34069 ft 405 kts 244°
2026-05-05 02:05 28.69388 -146.43678 34086 ft 405 kts 248°
2026-05-05 02:06 28.66567 -146.49550 34064 ft 403 kts 250°
2026-05-05 02:06 28.63538 -146.55331 34085 ft 407 kts 243°
2026-05-05 02:07 28.60442 -146.61055 34069 ft 405 kts 244°
2026-05-05 02:07 28.57417 -146.66850 34082 ft 405 kts 244°
2026-05-05 02:08 28.54412 -146.72646 34076 ft 407 kts 244°
2026-05-05 02:08 28.51475 -146.78554 34078 ft 405 kts 250°
2026-05-05 02:09 28.48545 -146.84424 34083 ft 406 kts 249°
2026-05-05 02:09 28.45494 -146.90219 34091 ft 409 kts 243°
2026-05-05 02:10 28.42363 -146.95978 34087 ft 408 kts 248°
2026-05-05 02:10 28.39319 -147.01851 34075 ft 412 kts 244°
2026-05-05 02:11 28.36348 -147.07748 34063 ft 410 kts 250°
2026-05-05 02:11 28.33328 -147.13707 34070 ft 413 kts 249°
2026-05-05 02:12 28.28665 -147.22556 34082 ft 413 kts 250°
2026-05-05 02:13 28.25609 -147.28473 34069 ft 413 kts 249°
2026-05-05 02:13 28.22513 -147.34398 34070 ft 413 kts 249°
2026-05-05 02:14 28.19416 -147.40285 34071 ft 413 kts 249°
2026-05-05 02:14 28.16311 -147.46185 34072 ft 413 kts 248°
2026-05-05 02:15 28.13077 -147.52019 34081 ft 412 kts 248°
2026-05-05 02:15 28.10082 -147.57903 34073 ft 414 kts 248°
2026-05-05 02:16 28.06862 -147.63734 34074 ft 414 kts 248°
2026-05-05 02:16 28.03861 -147.69658 34075 ft 413 kts 249°
2026-05-05 02:17 28.00773 -147.75549 34080 ft 413 kts 248°
2026-05-05 02:17 27.97566 -147.81390 34090 ft 415 kts 242°
2026-05-05 02:18 27.94366 -147.87251 34103 ft 413 kts 250°
2026-05-05 02:18 27.91369 -147.93172 34076 ft 413 kts 248°
2026-05-05 02:19 27.88129 -147.98978 34058 ft 416 kts 243°
2026-05-05 02:19 27.84938 -148.04785 34069 ft 414 kts 244°
2026-05-05 02:20 27.81817 -148.10600 34075 ft 413 kts 247°
2026-05-05 02:20 27.78758 -148.16530 34091 ft 415 kts 243°
2026-05-05 02:21 27.75615 -148.22369 34087 ft 413 kts 250°
2026-05-05 02:21 27.72480 -148.28174 34062 ft 414 kts 243°
2026-05-05 02:22 27.69395 -148.34032 34077 ft 413 kts 246°
2026-05-05 02:22 27.66187 -148.39777 34060 ft 415 kts 244°
2026-05-05 02:23 27.62983 -148.45647 34066 ft 414 kts 244°
2026-05-05 02:23 27.59837 -148.51459 34069 ft 414 kts 244°
2026-05-05 02:24 27.56702 -148.57315 34080 ft 413 kts 249°
2026-05-05 02:24 27.53735 -148.63174 34060 ft 412 kts 249°
2026-05-05 02:25 27.50511 -148.68991 34087 ft 416 kts 245°
2026-05-05 02:25 27.47432 -148.74832 34067 ft 413 kts 249°
2026-05-05 02:26 27.44240 -148.80701 34095 ft 416 kts 243°
2026-05-05 02:26 27.40937 -148.86476 34094 ft 417 kts 247°
2026-05-05 02:27 27.37752 -148.92351 34076 ft 419 kts 243°
2026-05-05 02:27 27.34476 -148.98245 34091 ft 421 kts 247°
2026-05-05 02:28 27.31408 -149.04207 34066 ft 421 kts 248°
2026-05-05 02:28 27.28200 -149.10162 34073 ft 423 kts 248°
2026-05-05 02:29 27.24965 -149.16090 34072 ft 423 kts 247°
2026-05-05 02:29 27.21707 -149.22031 34075 ft 423 kts 247°
2026-05-05 02:30 27.18325 -149.27840 34064 ft 424 kts 242°
2026-05-05 02:30 27.15017 -149.33696 34073 ft 423 kts 243°
2026-05-05 02:31 27.11745 -149.39600 34071 ft 424 kts 244°
2026-05-05 02:31 27.08462 -149.45541 34072 ft 422 kts 245°
2026-05-05 02:32 27.05211 -149.51474 34071 ft 423 kts 243°
2026-05-05 02:32 27.01995 -149.57385 34094 ft 424 kts 248°
2026-05-05 02:33 26.98753 -149.63297 34089 ft 425 kts 248°
2026-05-05 02:33 26.95511 -149.69292 34105 ft 430 kts 241°
2026-05-05 02:34 26.92141 -149.75215 34101 ft 430 kts 247°
2026-05-05 02:34 26.88910 -149.81232 34092 ft 435 kts 241°
2026-05-05 02:35 26.85422 -149.87205 34078 ft 434 kts 244°
2026-05-05 02:35 26.82193 -149.93253 34084 ft 434 kts 242°
2026-05-05 02:36 26.78769 -149.99243 34093 ft 433 kts 246°
2026-05-05 02:36 26.75593 -150.05165 34067 ft 433 kts 245°
2026-05-05 02:37 26.72323 -150.11052 34070 ft 434 kts 245°
2026-05-05 02:37 26.69058 -150.16893 34069 ft 434 kts 245°
2026-05-05 02:38 26.65764 -150.22763 34069 ft 434 kts 245°
2026-05-05 02:38 26.62380 -150.28560 34074 ft 435 kts 239°
2026-05-05 02:39 26.59003 -150.34329 34071 ft 434 kts 242°
2026-05-05 02:39 26.55833 -150.40240 34065 ft 432 kts 246°
2026-05-05 02:40 26.52597 -150.46106 34074 ft 433 kts 245°
2026-05-05 02:40 26.49315 -150.51949 34074 ft 434 kts 245°
2026-05-05 02:41 26.45913 -150.57675 34068 ft 435 kts 239°
2026-05-05 02:41 26.42513 -150.63504 34073 ft 433 kts 241°
2026-05-05 02:42 26.39223 -150.69575 34075 ft 433 kts 246°
2026-05-05 02:42 26.35798 -150.75464 34077 ft 434 kts 239°
2026-05-05 02:43 26.32360 -150.81453 34105 ft 433 kts 245°
2026-05-05 02:43 26.29087 -150.87468 34100 ft 435 kts 241°
2026-05-05 02:44 26.25561 -150.93358 34077 ft 433 kts 240°
2026-05-05 02:44 26.22274 -150.99326 34079 ft 433 kts 246°
2026-05-05 02:45 26.18962 -151.05255 34097 ft 435 kts 242°
2026-05-05 02:45 26.15432 -151.11095 34077 ft 435 kts 240°
2026-05-05 02:46 26.12001 -151.17084 34106 ft 435 kts 246°
2026-05-05 02:46 26.08560 -151.23045 34077 ft 435 kts 241°
2026-05-05 02:47 26.05128 -151.28969 34083 ft 436 kts 241°
2026-05-05 02:47 26.01695 -151.34915 34082 ft 435 kts 241°
2026-05-05 02:48 25.98373 -151.40918 34084 ft 434 kts 247°
2026-05-05 02:48 25.94938 -151.46933 34101 ft 437 kts 240°
2026-05-05 02:49 25.91412 -151.52800 34080 ft 435 kts 241°
2026-05-05 02:49 25.87961 -151.58727 34072 ft 435 kts 241°
2026-05-05 02:50 25.84541 -151.64725 34095 ft 435 kts 247°
2026-05-05 02:50 25.81107 -151.70695 34086 ft 437 kts 242°
2026-05-05 02:51 25.77661 -151.76633 34086 ft 436 kts 240°
2026-05-05 02:51 25.74161 -151.82530 34079 ft 436 kts 241°
2026-05-05 02:52 25.70833 -151.88460 34081 ft 434 kts 246°
2026-05-05 02:52 25.67354 -151.94365 34077 ft 437 kts 239°
2026-05-05 02:53 25.63828 -152.00266 34078 ft 436 kts 241°
2026-05-05 02:53 25.60366 -152.06161 34079 ft 435 kts 241°
2026-05-05 02:54 25.56931 -152.12082 34098 ft 435 kts 245°
2026-05-05 02:54 25.53475 -152.18031 34079 ft 436 kts 240°
2026-05-05 02:55 25.50005 -152.23868 34079 ft 435 kts 241°
2026-05-05 02:55 25.46654 -152.29829 34074 ft 434 kts 246°
2026-05-05 02:56 25.43268 -152.35763 34078 ft 435 kts 245°
2026-05-05 02:56 25.39821 -152.41661 34077 ft 436 kts 245°
2026-05-05 02:57 25.36348 -152.47542 34088 ft 437 kts 242°
2026-05-05 02:57 25.32707 -152.53400 34091 ft 435 kts 244°
2026-05-05 02:58 25.29330 -152.59366 34076 ft 435 kts 244°
2026-05-05 02:58 25.25734 -152.65167 34070 ft 437 kts 239°
2026-05-05 02:59 25.22195 -152.71030 34084 ft 436 kts 240°
2026-05-05 02:59 25.18744 -152.76892 34107 ft 435 kts 245°
2026-05-05 03:00 25.15389 -152.82871 34081 ft 435 kts 245°
2026-05-05 03:00 25.11954 -152.88719 34085 ft 436 kts 244°
2026-05-05 03:01 25.08408 -152.94614 34108 ft 442 kts 239°
2026-05-05 03:01 25.04729 -153.00462 34079 ft 442 kts 239°
2026-05-05 03:02 25.01157 -153.06386 34084 ft 443 kts 239°
2026-05-05 03:02 24.97607 -153.12338 34096 ft 444 kts 241°
2026-05-05 03:03 24.94181 -153.18349 34101 ft 444 kts 238°
2026-05-05 03:03 24.90505 -153.24255 34090 ft 443 kts 240°
2026-05-05 03:04 24.87076 -153.30267 34070 ft 443 kts 243°
2026-05-05 03:04 24.83526 -153.36235 34090 ft 445 kts 239°
2026-05-05 03:05 24.79854 -153.42064 34093 ft 443 kts 240°
2026-05-05 03:05 24.76232 -153.47981 34072 ft 443 kts 237°
2026-05-05 03:06 24.72624 -153.53925 34077 ft 443 kts 238°
2026-05-05 03:06 24.69047 -153.59840 34077 ft 444 kts 238°
2026-05-05 03:07 24.65521 -153.65779 34099 ft 443 kts 243°
2026-05-05 03:07 24.62097 -153.71739 34079 ft 443 kts 242°
2026-05-05 03:08 24.58463 -153.77554 34080 ft 445 kts 236°
2026-05-05 03:08 24.54802 -153.83418 34070 ft 444 kts 237°
2026-05-05 03:09 24.51218 -153.89340 34091 ft 445 kts 242°
2026-05-05 03:09 24.47727 -153.95363 34089 ft 445 kts 238°
2026-05-05 03:10 24.44038 -154.01175 34079 ft 444 kts 239°
2026-05-05 03:10 24.40444 -154.07161 34084 ft 444 kts 236°
2026-05-05 03:11 24.36805 -154.12982 34072 ft 444 kts 237°
2026-05-05 03:11 24.33181 -154.18884 34071 ft 444 kts 237°
2026-05-05 03:12 24.29681 -154.24876 34065 ft 444 kts 243°
2026-05-05 03:12 24.26049 -154.30783 34092 ft 445 kts 235°
2026-05-05 03:13 24.22346 -154.36534 34070 ft 444 kts 237°
2026-05-05 03:13 24.18666 -154.42435 34071 ft 445 kts 237°
2026-05-05 03:14 24.15137 -154.48369 34068 ft 444 kts 243°
2026-05-05 03:14 24.11503 -154.54237 34087 ft 445 kts 236°
2026-05-05 03:15 24.07764 -154.60043 34069 ft 444 kts 237°
2026-05-05 03:15 24.04222 -154.65973 34067 ft 444 kts 242°
2026-05-05 03:16 24.00613 -154.71919 34075 ft 445 kts 240°
2026-05-05 03:16 23.96830 -154.77704 34066 ft 445 kts 236°
2026-05-05 03:17 23.93143 -154.83543 34089 ft 445 kts 236°
2026-05-05 03:17 23.89457 -154.89378 34073 ft 445 kts 237°
2026-05-05 03:18 23.85872 -154.95287 34090 ft 445 kts 235°
2026-05-05 03:18 23.82138 -155.01167 34094 ft 445 kts 240°
2026-05-05 03:19 23.76742 -155.10092 34070 ft 445 kts 239°
2026-05-05 03:19 23.73040 -155.16016 34070 ft 445 kts 239°
2026-05-05 03:20 23.69275 -155.21912 34093 ft 447 kts 234°
2026-05-05 03:20 23.65457 -155.27679 34067 ft 445 kts 235°
2026-05-05 03:21 23.61695 -155.33589 34070 ft 446 kts 235°
2026-05-05 03:21 23.57982 -155.39458 34071 ft 445 kts 236°
2026-05-05 03:22 23.54352 -155.45448 34044 ft 446 kts 238°
2026-05-05 03:22 23.49952 -155.50746 34074 ft 449 kts 220°
2026-05-05 03:23 23.44337 -155.54513 34076 ft 451 kts 213°
2026-05-05 03:23 23.38648 -155.58145 34058 ft 451 kts 212°
2026-05-05 03:24 23.33181 -155.62144 34064 ft 450 kts 218°
2026-05-05 03:24 23.27680 -155.66165 34072 ft 451 kts 216°
2026-05-05 03:25 23.22108 -155.69986 34063 ft 451 kts 212°
2026-05-05 03:25 23.16538 -155.73908 34072 ft 451 kts 213°
2026-05-05 03:26 23.11022 -155.77852 34072 ft 451 kts 213°
2026-05-05 03:26 23.05554 -155.81949 34067 ft 450 kts 218°
2026-05-05 03:27 23.00050 -155.85877 34082 ft 456 kts 211°
2026-05-05 03:27 22.94351 -155.89856 34088 ft 464 kts 214°
2026-05-05 03:28 22.88868 -155.93973 34080 ft 456 kts 211°
2026-05-05 03:28 22.83314 -155.97922 34074 ft 451 kts 214°
2026-05-05 03:29 22.77837 -156.01895 34073 ft 453 kts 213°
2026-05-05 03:29 22.72292 -156.05873 34072 ft 453 kts 213°
2026-05-05 03:30 22.66751 -156.09781 34093 ft 453 kts 208°
2026-05-05 03:30 22.61144 -156.13666 34092 ft 453 kts 214°
2026-05-05 03:31 22.55590 -156.17535 34065 ft 452 kts 208°
2026-05-05 03:31 22.50036 -156.21510 34093 ft 454 kts 215°
2026-05-05 03:32 22.44614 -156.25528 34057 ft 440 kts 213°
2026-05-05 03:32 22.39246 -156.29221 34079 ft 436 kts 208°
2026-05-05 03:33 22.33821 -156.32979 34056 ft 440 kts 211°
2026-05-05 03:33 22.31295 -156.35144 34045 ft 451 kts 218°
2026-05-05 03:33 22.28953 -156.37686 34041 ft 459 kts 225°
2026-05-05 03:34 22.24904 -156.43443 34076 ft 459 kts 234°
2026-05-05 03:34 22.20735 -156.49138 34098 ft 457 kts 226°
2026-05-05 03:35 22.16372 -156.54623 34079 ft 457 kts 229°
2026-05-05 03:35 22.12194 -156.60196 34096 ft 457 kts 226°
2026-05-05 03:36 22.07849 -156.65729 34096 ft 458 kts 231°
2026-05-05 03:36 22.03611 -156.71265 34090 ft 457 kts 231°
2026-05-05 03:37 21.99431 -156.76871 34068 ft 457 kts 231°
2026-05-05 03:37 21.95047 -156.82379 34072 ft 457 kts 225°
2026-05-05 03:38 21.90724 -156.87799 34069 ft 457 kts 226°
2026-05-05 03:38 21.86399 -156.93347 34071 ft 458 kts 226°
2026-05-05 03:39 21.82214 -156.98973 34065 ft 457 kts 232°
2026-05-05 03:39 21.77988 -157.04503 34091 ft 457 kts 226°
2026-05-05 03:40 21.73627 -157.09933 34095 ft 456 kts 229°
2026-05-05 03:40 21.69332 -157.15405 34089 ft 455 kts 231°
2026-05-05 03:41 21.65141 -157.20973 34095 ft 454 kts 226°
2026-05-05 03:41 21.60844 -157.26282 34067 ft 454 kts 227°
2026-05-05 03:42 21.56561 -157.31735 34068 ft 454 kts 227°
2026-05-05 03:42 21.52306 -157.37180 34066 ft 454 kts 227°
2026-05-05 03:43 21.48022 -157.42662 34065 ft 454 kts 227°
2026-05-05 03:43 21.43747 -157.48129 34064 ft 455 kts 227°
2026-05-05 03:44 21.39479 -157.53580 34064 ft 454 kts 227°
2026-05-05 03:44 21.35307 -157.59145 34058 ft 455 kts 232°
2026-05-05 03:45 21.30999 -157.64598 34075 ft 454 kts 225°
2026-05-05 03:45 21.27138 -157.70142 34105 ft 440 kts 245°
2026-05-05 03:46 21.25331 -157.76605 34087 ft 439 kts 254°
2026-05-05 03:46 21.23939 -157.83212 34070 ft 442 kts 255°
2026-05-05 03:47 21.22656 -157.89830 34060 ft 441 kts 258°
2026-05-05 03:47 21.20510 -157.96118 34037 ft 440 kts 243°
2026-05-05 03:48 21.18874 -157.99007 34079 ft 438 kts 231°
2026-05-05 03:48 21.16750 -158.01462 34163 ft 436 kts 217°
2026-05-05 03:48 21.14146 -158.03320 34163 ft 436 kts 203°
2026-05-05 03:48 21.11238 -158.04465 34164 ft 433 kts 189°
2026-05-05 03:49 21.08218 -158.04839 34165 ft 424 kts 176°
2026-05-05 03:49 21.05282 -158.04466 34136 ft 415 kts 167°
2026-05-05 03:49 20.99738 -158.02210 34040 ft 417 kts 155°
2026-05-05 03:50 20.97211 -158.00502 34053 ft 430 kts 146°
2026-05-05 03:50 20.94903 -157.98262 34148 ft 443 kts 131°
2026-05-05 03:50 20.93057 -157.95439 34155 ft 450 kts 120°
2026-05-05 03:50 20.91355 -157.92560 34023 ft 447 kts 126°
2026-05-05 03:51 20.87070 -157.87602 34065 ft 437 kts 144°
2026-05-05 03:51 20.81920 -157.83800 34061 ft 440 kts 146°
2026-05-05 03:52 20.76981 -157.79627 34068 ft 439 kts 142°
2026-05-05 03:52 20.72044 -157.75520 34091 ft 438 kts 146°
2026-05-05 03:53 20.67056 -157.71582 34070 ft 439 kts 147°
2026-05-05 03:53 20.62158 -157.67493 34094 ft 439 kts 141°
2026-05-05 03:54 20.57280 -157.63324 33798 ft 444 kts 147°
2026-05-05 03:54 20.54746 -157.61337 33087 ft 447 kts 147°
2026-05-05 03:54 20.52218 -157.59300 32379 ft 446 kts 147°
2026-05-05 03:55 20.49721 -157.57265 31648 ft 445 kts 145°
2026-05-05 03:55 20.47349 -157.55029 30895 ft 446 kts 136°
2026-05-05 03:55 20.45368 -157.52397 30270 ft 445 kts 121°
2026-05-05 03:55 20.44092 -157.49355 29698 ft 442 kts 108°
2026-05-05 03:56 20.43391 -157.46083 29025 ft 442 kts 96°
2026-05-05 03:56 20.43419 -157.42781 28457 ft 435 kts 79°
2026-05-05 03:56 20.44258 -157.39693 27903 ft 429 kts 63°
2026-05-05 03:56 20.45758 -157.36877 27265 ft 428 kts 54°
2026-05-05 03:57 20.47760 -157.34433 26640 ft 422 kts 37°
2026-05-05 03:57 20.50222 -157.32744 26073 ft 412 kts 21°
2026-05-05 03:57 20.52929 -157.31735 25414 ft 410 kts 15°
2026-05-05 03:57 20.55783 -157.31049 24649 ft 408 kts
2026-05-05 03:58 20.58626 -157.30669 23944 ft 405 kts
2026-05-05 03:58 20.61424 -157.30542 23421 ft 396 kts 359°
2026-05-05 03:58 20.64220 -157.30772 22862 ft 387 kts 351°
2026-05-05 03:58 20.66861 -157.31409 22313 ft 380 kts 342°
2026-05-05 03:59 20.69340 -157.32471 21757 ft 374 kts 333°
2026-05-05 03:59 20.71544 -157.33925 21210 ft 369 kts 323°
2026-05-05 03:59 20.73478 -157.35780 20656 ft 364 kts 313°
2026-05-05 03:59 20.75053 -157.37956 20103 ft 361 kts 303°
2026-05-05 04:00 20.76353 -157.40318 19588 ft 357 kts 300°
2026-05-05 04:00 20.77535 -157.42694 19100 ft 355 kts 296°
2026-05-05 04:00 20.78650 -157.45100 18624 ft 352 kts 294°
2026-05-05 04:00 20.79818 -157.47488 18152 ft 350 kts 299°
2026-05-05 04:01 20.80930 -157.49815 17689 ft 348 kts 294°
2026-05-05 04:01 20.82029 -157.52194 17191 ft 345 kts 294°
2026-05-05 04:01 20.83137 -157.54491 16728 ft 345 kts 298°
2026-05-05 04:01 20.84288 -157.56827 16246 ft 342 kts 295°
2026-05-05 04:02 20.85343 -157.59126 15768 ft 339 kts 294°
2026-05-05 04:02 20.86411 -157.61435 15276 ft 337 kts 294°
2026-05-05 04:02 20.87459 -157.63695 14794 ft 335 kts 294°
2026-05-05 04:02 20.88516 -157.65988 14304 ft 333 kts 294°
2026-05-05 04:03 20.89577 -157.68211 13844 ft 332 kts 298°
2026-05-05 04:03 20.90686 -157.70430 13358 ft 329 kts 299°
2026-05-05 04:03 20.91771 -157.72624 12873 ft 327 kts 299°
2026-05-05 04:03 20.92829 -157.74793 12399 ft 325 kts 296°
2026-05-05 04:04 20.93845 -157.77020 11929 ft 323 kts 295°
2026-05-05 04:04 20.94888 -157.79169 11471 ft 322 kts 300°
2026-05-05 04:04 20.95915 -157.81262 10947 ft 303 kts 298°
2026-05-05 04:04 20.96869 -157.83278 10440 ft 285 kts 298°
2026-05-05 04:05 20.97748 -157.85147 9954 ft 275 kts 298°
2026-05-05 04:05 20.98623 -157.87009 9503 ft 278 kts 298°
2026-05-05 04:05 20.99527 -157.88937 9025 ft 282 kts 297°
2026-05-05 04:05 21.00387 -157.90849 8561 ft 280 kts 294°
2026-05-05 04:06 21.01233 -157.92744 8076 ft 276 kts 294°
2026-05-05 04:06 21.02088 -157.94641 7588 ft 273 kts 294°
2026-05-05 04:06 21.02914 -157.96478 7111 ft 270 kts 294°
2026-05-05 04:06 21.03739 -157.98318 6628 ft 267 kts 294°
2026-05-05 04:07 21.04555 -158.00139 6147 ft 265 kts 294°
2026-05-05 04:07 21.05362 -158.01935 5669 ft 263 kts 294°
2026-05-05 04:07 21.06178 -158.03729 5181 ft 256 kts 297°
2026-05-05 04:07 21.06967 -158.05397 4706 ft 246 kts 298°
2026-05-05 04:08 21.07735 -158.07040 4219 ft 237 kts 298°
2026-05-05 04:08 21.08566 -158.08484 3781 ft 228 kts 318°
2026-05-05 04:08 21.09846 -158.09457 3356 ft 221 kts 328°
2026-05-05 04:08 21.11193 -158.10306 2881 ft 218 kts 329°
2026-05-05 04:09 21.12604 -158.10896 2425 ft 213 kts 354°
2026-05-05 04:09 21.14038 -158.10671 2196 ft 200 kts 18°
2026-05-05 04:09 21.15330 -158.10144 2048 ft 189 kts 20°
2026-05-05 04:09 21.16528 -158.09634 2029 ft 179 kts 21°
2026-05-05 04:10 21.17699 -158.09155 2002 ft 177 kts 19°
2026-05-05 04:10 21.18880 -158.08667 2007 ft 178 kts 19°
2026-05-05 04:10 21.20062 -158.08166 2005 ft 178 kts 23°
2026-05-05 04:10 21.21023 -158.07317 2025 ft 178 kts 51°
2026-05-05 04:11 21.21799 -158.06230 2010 ft 180 kts 50°
2026-05-05 04:11 21.22574 -158.05150 2030 ft 176 kts 52°
2026-05-05 04:11 21.23336 -158.04069 2019 ft 179 kts 49°
2026-05-05 04:11 21.24124 -158.03029 1993 ft 176 kts 46°
2026-05-05 04:12 21.24914 -158.01976 1998 ft 177 kts 47°
2026-05-05 04:12 21.25684 -158.00913 1900 ft 180 kts 47°
2026-05-05 04:12 21.26439 -157.99817 1639 ft 171 kts 54°
2026-05-05 04:12 21.27104 -157.98793 1395 ft 157 kts 49°
2026-05-05 04:13 21.27759 -157.97902 1178 ft 143 kts 47°
2026-05-05 04:13 21.28377 -157.97044 996 ft 142 kts 48°
2026-05-05 04:13 21.28997 -157.96173 831 ft 148 kts 48°
2026-05-05 04:13 21.29628 -157.95271 628 ft 146 kts 49°
2026-05-05 04:14 21.30246 -157.94383 429 ft 144 kts 49°
2026-05-05 04:14 21.30904 -157.93568 251 ft 139 kts 47°
2026-05-05 04:14 21.31521 -157.92767 104 ft 134 kts 47°
2026-05-05 04:14 21.32099 -157.91965 27 ft 130 kts 51°
2026-05-05 04:15 21.32581 -157.91267 26 ft 79 kts 53°
2026-05-05 04:15 21.32796 -157.90965 30 ft 30 kts 53°
2026-05-05 04:15 21.32918 -157.90793 28 ft 20 kts 51°
2026-05-05 04:15 21.33023 -157.90773 29 ft 15 kts 303°
2026-05-05 04:16 21.33033 -157.90874 31 ft 11 kts 255°
2026-05-05 04:16 21.33000 -157.90944 33 ft 8 kts 235°
2026-05-05 04:16 21.32962 -157.90991 33 ft 7 kts 227°
2026-05-05 04:16 21.32918 -157.91045 33 ft 10 kts 229°
2026-05-05 04:17 21.32865 -157.91115 33 ft 12 kts 232°
2026-05-05 04:17 21.32808 -157.91196 33 ft 14 kts 238°
2026-05-05 04:17 21.32774 -157.91316 32 ft 17 kts 264°
2026-05-05 04:17 21.32777 -157.91454 30 ft 16 kts 289°
2026-05-05 04:18 21.32808 -157.91492 31 ft 4 kts 330°
2026-05-05 04:18 21.32838 -157.91501 31 ft 4 kts 354°
2026-05-05 04:18 21.32866 -157.91502 32 ft 3 kts 359°
2026-05-05 04:18 21.32872 -157.91502 33 ft 0 kts